| time (UTC) | temp F | wind direction | speed knots | gust knots | rain 1hr in | rain 24hr in | rain mn in | humidity % | barometer mb |
| 20260505122140 | 56 | 0.0 | 0.0 | 0.06 | 0.33 | 0.20 | 74 | 1011.1 | |
| 20260505122038 | 56 | 0.0 | 0.0 | 0.07 | 0.33 | 0.20 | 74 | 1011.1 | |
| 20260505121936 | 56 | 0.0 | 0.0 | 0.07 | 0.33 | 0.20 | 74 | 1010.9 | |
| 20260505121832 | 56 | 0.0 | 0.0 | 0.07 | 0.33 | 0.20 | 74 | 1010.9 | |
| 20260505121733 | 56 | 0.0 | 0.0 | 0.07 | 0.33 | 0.20 | 74 | 1011.1 | |
| 20260505121633 | 56 | 0.0 | 0.0 | 0.07 | 0.33 | 0.20 | 73 | 1011.1 | |
| 20260505121531 | 56 | 0.0 | 0.0 | 0.07 | 0.33 | 0.20 | 73 | 1010.9 | |
| 20260505121448 | 56 | 0.0 | 0.0 | 0.07 | 0.33 | 0.20 | 73 | 1011.1 | |
| 20260505121423 | 56 | 0.0 | 0.0 | 0.07 | 0.33 | 0.20 | 73 | 1011.1 | |
| 20260505121400 | 56 | 0.0 | 0.0 | 0.08 | 0.33 | 0.20 | 73 | 1011.1 | |
| 20260505121025 | 56 | 0.0 | 0.0 | 0.08 | 0.33 | 0.20 | 73 | 1011.2 | |
| 20260505120925 | 56 | 0.0 | 0.0 | 0.08 | 0.33 | 0.20 | 73 | 1011.1 | |
| 20260505120823 | 56 | 0.0 | 0.0 | 0.08 | 0.33 | 0.20 | 73 | 1011.1 | |
| 20260505120733 | 56 | 0.0 | 0.0 | 0.09 | 0.25 | 0.20 | 73 | 1011.1 | |
| 20260505120405 | 56 | 0.0 | 0.0 | 0.09 | 0.25 | 0.20 | 73 | 1011.1 | |
| 20260505120319 | 56 | 0.0 | 0.0 | 0.00 | 0.25 | 0.20 | 73 | 1011.1 | |
| 20260505120136 | 55 | 0.0 | 0.0 | 0.00 | 0.25 | 0.20 | 73 | 1011.2 | |
| 20260505120041 | 55 | 0.0 | 0.0 | 0.00 | 0.25 | 0.20 | 73 | 1011.1 | |
| 20260505115935 | 55 | 0.0 | 0.0 | 0.00 | 0.25 | 0.20 | 73 | 1011.1 | |
| 20260505115851 | 55 | 0.0 | 0.0 | 0.00 | 0.25 | 0.20 | 74 | 1011.1 | |
| 20260505115833 | 55 | 0.0 | 0.0 | 0.00 | 0.25 | 0.20 | 74 | 1011.1 | |
| 20260505115809 | 55 | 0.0 | 0.0 | 0.00 | 0.25 | 0.20 | 74 | 1011.1 | |
| 20260505115745 | 55 | 0.0 | 0.0 | 0.00 | 0.25 | 0.20 | 74 | 1011.1 | |
| 20260505115728 | 55 | 0.0 | 0.0 | 0.00 | 0.25 | 0.20 | 74 | 1011.1 | |
| 20260505115709 | 55 | 0.0 | 0.0 | 0.00 | 0.25 | 0.20 | 74 | 1011.1 | |
| 20260505115655 | 55 | 0.0 | 0.0 | 0.00 | 0.25 | 0.20 | 74 | 1011.1 | |
| 20260505115409 | 55 | 0.0 | 0.0 | 0.00 | 0.25 | 0.19 | 74 | 1011.1 | |
| 20260505115120 | 55 | 0.0 | 0.0 | 0.01 | 0.25 | 0.19 | 75 | 1011.1 | |
| 20260505114839 | 55 | 0.0 | 0.0 | 0.01 | 0.25 | 0.18 | 75 | 1010.9 | |
| 20260505114555 | 55 | 0.0 | 0.0 | 0.01 | 0.25 | 0.17 | 75 | 1010.9 | |
| 20260505114306 | 55 | 0.0 | 0.0 | 0.01 | 0.25 | 0.17 | 75 | 1011.1 | |
| 20260505113959 | 55 | 0.0 | 0.0 | 0.01 | 0.25 | 0.17 | 75 | 1011.1 | |
| 20260505113936 | 55 | 0.0 | 0.0 | 0.01 | 0.25 | 0.16 | 75 | 1011.2 | |
| 20260505113919 | 56 | 0.0 | 0.0 | 0.01 | 0.25 | 0.16 | 75 | 1011.1 | |
| 20260505113901 | 56 | 0.0 | 0.0 | 0.01 | 0.25 | 0.16 | 75 | 1011.1 | |
| 20260505113838 | 56 | 0.0 | 0.0 | 0.01 | 0.25 | 0.15 | 75 | 1011.1 | |
| 20260505113547 | 56 | 0.0 | 0.0 | 0.01 | 0.25 | 0.15 | 75 | 1011.1 | |
| 20260505113252 | 56 | 0.0 | 0.0 | 0.01 | 0.25 | 0.15 | 75 | 1010.9 | |
| 20260505113229 | 56 | 0.0 | 0.0 | 0.01 | 0.25 | 0.14 | 75 | 1010.9 | |
| 20260505113209 | 56 | 0.0 | 0.0 | 0.01 | 0.25 | 0.14 | 75 | 1011.1 | |
| 20260505113142 | 56 | 0.0 | 0.0 | 0.01 | 0.25 | 0.14 | 75 | 1010.9 | |
| 20260505112844 | 56 | 0.0 | 0.0 | 0.01 | 0.25 | 0.14 | 75 | 1010.9 | |
| 20260505112538 | 56 | 0.0 | 0.0 | 0.01 | 0.25 | 0.14 | 75 | 1010.9 | |
| 20260505112250 | 56 | 0.0 | 0.0 | 0.01 | 0.25 | 0.13 | 75 | 1010.9 | |
| 20260505112227 | 56 | 0.0 | 0.0 | 0.01 | 0.25 | 0.13 | 75 | 1010.9 | |
| 20260505112204 | 56 | 0.0 | 0.0 | 0.01 | 0.25 | 0.13 | 75 | 1010.9 | |
| 20260505111918 | 56 | 0.0 | 0.0 | 0.01 | 0.25 | 0.13 | 75 | 1010.9 | |
| 20260505111557 | 56 | 0.0 | 0.0 | 0.01 | 0.25 | 0.13 | 75 | 1010.9 | |
| 20260505111452 | 56 | 0.0 | 0.0 | 0.01 | 0.25 | 0.13 | 75 | 1010.8 | |
| 20260505111351 | 56 | 0.0 | 0.0 | 0.01 | 0.25 | 0.13 | 75 | 1010.8 | |
| 20260505111251 | 56 | 0.0 | 0.0 | 0.01 | 0.25 | 0.13 | 75 | 1010.8 | |
| 20260505111147 | 56 | 0.0 | 0.0 | 0.01 | 0.25 | 0.13 | 75 | 1010.8 | |
| 20260505111048 | 56 | 0.0 | 0.0 | 0.01 | 0.25 | 0.13 | 75 | 1010.9 | |
| 20260505110944 | 56 | 0.0 | 0.0 | 0.01 | 0.25 | 0.13 | 75 | 1010.8 | |
| 20260505110852 | 56 | 0.0 | 0.0 | 0.01 | 0.25 | 0.13 | 75 | 1010.8 | |
| 20260505110742 | 56 | 0.0 | 0.0 | 0.01 | 0.25 | 0.13 | 75 | 1010.8 | |
| 20260505110717 | 56 | 0.0 | 0.0 | 0.01 | 0.25 | 0.13 | 75 | 1010.8 | |
| 20260505110652 | 56 | 0.0 | 0.0 | 0.01 | 0.25 | 0.13 | 75 | 1010.8 | |
| 20260505110334 | 0 | 0.0 | 0.0 | 0.00 | 0.00 | 0.00 | 1010.8 | ||
| 20260505102134 | 56 | 0.0 | 0.0 | 0.00 | 0.24 | 0.12 | 74 | 1010.7 | |
| 20260505101541 | 56 | 0.0 | 0.0 | 0.00 | 0.24 | 0.12 | 73 | 1010.6 | |
| 20260505101453 | 56 | 0.0 | 0.0 | 0.00 | 0.24 | 0.12 | 73 | 1010.6 | |
| 20260505101432 | 56 | 0.0 | 0.0 | 0.00 | 0.24 | 0.12 | 73 | 1010.7 | |
| 20260505101409 | 56 | 0.0 | 0.0 | 0.00 | 0.24 | 0.12 | 73 | 1010.7 | |
| 20260505101040 | 56 | 0.0 | 0.0 | 0.01 | 0.24 | 0.12 | 73 | 1010.6 | |
| 20260505100942 | 56 | 0.0 | 0.0 | 0.01 | 0.24 | 0.12 | 73 | 1010.6 | |
| 20260505100838 | 56 | 0.0 | 0.0 | 0.01 | 0.24 | 0.12 | 73 | 1010.7 | |
| 20260505100737 | 56 | 0.0 | 0.0 | 0.01 | 0.24 | 0.12 | 73 | 1010.6 | |
| 20260505100525 | 56 | 0.0 | 0.0 | 0.01 | 0.23 | 0.12 | 73 | 1010.6 | |
| 20260505100421 | 56 | 0.0 | 0.0 | 0.02 | 0.23 | 0.12 | 73 | 1010.6 | |
| 20260505100320 | 56 | 0.0 | 0.0 | 0.02 | 0.23 | 0.12 | 73 | 1010.6 | |
| 20260505100218 | 56 | 0.0 | 0.0 | 0.02 | 0.23 | 0.12 | 73 | 1010.6 | |
| 20260505100113 | 56 | 0.0 | 0.0 | 0.02 | 0.23 | 0.12 | 73 | 1010.6 | |
| 20260505100011 | 56 | 0.0 | 0.0 | 0.02 | 0.23 | 0.12 | 73 | 1010.6 | |
| 20260505095910 | 56 | 0.0 | 0.0 | 0.02 | 0.23 | 0.12 | 73 | 1010.6 | |
| 20260505095808 | 56 | 0.0 | 0.0 | 0.02 | 0.23 | 0.12 | 73 | 1010.6 | |
| 20260505095706 | 56 | 0.0 | 0.0 | 0.02 | 0.23 | 0.12 | 73 | 1010.6 | |
| 20260505095605 | 56 | 0.0 | 0.0 | 0.02 | 0.23 | 0.12 | 73 | 1010.6 | |
| 20260505095504 | 56 | 0.0 | 0.0 | 0.02 | 0.23 | 0.12 | 73 | 1010.6 | |
| 20260505095406 | 56 | 0.0 | 0.0 | 0.02 | 0.23 | 0.12 | 73 | 1010.6 | |
| 20260505095314 | 56 | 0.0 | 0.0 | 0.02 | 0.23 | 0.12 | 72 | 1010.6 | |
| 20260505095243 | 56 | 0.0 | 0.0 | 0.02 | 0.23 | 0.12 | 72 | 1010.5 | |
| 20260505095221 | 56 | 0.0 | 0.0 | 0.02 | 0.23 | 0.12 | 72 | 1010.6 | |
| 20260505095202 | 56 | 0.0 | 0.0 | 0.02 | 0.23 | 0.12 | 72 | 1010.6 | |
| 20260505094916 | 56 | 0.0 | 0.0 | 0.02 | 0.23 | 0.12 | 72 | 1010.5 | |
| 20260505094549 | 56 | 0.0 | 0.0 | 0.02 | 0.23 | 0.12 | 72 | 1010.6 | |
| 20260505094447 | 56 | 0.0 | 0.0 | 0.02 | 0.23 | 0.12 | 71 | 1010.5 | |
| 20260505094348 | 56 | 0.0 | 0.0 | 0.02 | 0.23 | 0.12 | 71 | 1010.6 | |
| 20260505094248 | 56 | 0.0 | 0.0 | 0.02 | 0.23 | 0.12 | 71 | 1010.5 | |
| 20260505094146 | 56 | 0.0 | 0.0 | 0.02 | 0.23 | 0.12 | 71 | 1010.5 | |
| 20260505094049 | 56 | 0.0 | 0.0 | 0.02 | 0.23 | 0.12 | 71 | 1010.5 | |
| 20260505093946 | 56 | 0.0 | 0.0 | 0.02 | 0.23 | 0.12 | 71 | 1010.5 | |
| 20260505093846 | 56 | 0.0 | 0.0 | 0.02 | 0.23 | 0.12 | 70 | 1010.5 | |
| 20260505093800 | 56 | 0.0 | 0.0 | 0.02 | 0.23 | 0.12 | 70 | 1010.5 | |
| 20260505093740 | 56 | 0.0 | 0.0 | 0.02 | 0.23 | 0.12 | 69 | 1010.4 | |
| 20260505093717 | 56 | 0.0 | 0.0 | 0.02 | 0.23 | 0.12 | 69 | 1010.4 | |
| 20260505093347 | 56 | 0.0 | 0.0 | 0.02 | 0.23 | 0.12 | 70 | 1010.5 | |
| 20260505093247 | 56 | 0.0 | 0.0 | 0.02 | 0.23 | 0.12 | 70 | 1010.5 | |
| 20260505093146 | 56 | 0.0 | 0.0 | 0.02 | 0.23 | 0.12 | 70 | 1010.5 | |
| 20260505093046 | 56 | 0.0 | 0.0 | 0.02 | 0.23 | 0.12 | 70 | 1010.5 | |
| 20260505092947 | 56 | 0.0 | 0.0 | 0.02 | 0.23 | 0.12 | 69 | 1010.5 | |
| 20260505092847 | 56 | 0.0 | 0.0 | 0.02 | 0.23 | 0.12 | 69 | 1010.4 | |
| 20260505092746 | 56 | 0.0 | 0.0 | 0.02 | 0.23 | 0.12 | 69 | 1010.5 | |
| 20260505092647 | 57 | 0.0 | 0.0 | 0.02 | 0.23 | 0.12 | 68 | 1010.4 | |
| 20260505092547 | 57 | 0.0 | 0.0 | 0.02 | 0.23 | 0.12 | 68 | 1010.5 | |
| 20260505092447 | 56 | 0.0 | 0.0 | 0.02 | 0.23 | 0.12 | 68 | 1010.5 | |
| 20260505092347 | 56 | 0.0 | 0.0 | 0.02 | 0.23 | 0.12 | 68 | 1010.5 | |
| 20260505092248 | 56 | 0.0 | 0.0 | 0.02 | 0.23 | 0.12 | 68 | 1010.5 | |
| 20260505092146 | 56 | 0.0 | 0.0 | 0.02 | 0.23 | 0.12 | 68 | 1010.5 | |
| 20260505092047 | 56 | 0.0 | 0.0 | 0.02 | 0.23 | 0.12 | 68 | 1010.5 | |
| 20260505091946 | 56 | 0.0 | 0.0 | 0.02 | 0.23 | 0.12 | 67 | 1010.5 | |
| 20260505091847 | 56 | 0.0 | 0.0 | 0.02 | 0.23 | 0.12 | 67 | 1010.5 | |
| 20260505091750 | 56 | 0.0 | 0.0 | 0.02 | 0.23 | 0.12 | 67 | 1010.5 | |
| 20260505091731 | 56 | 0.0 | 0.0 | 0.02 | 0.23 | 0.12 | 67 | 1010.5 | |
| 20260505091717 | 56 | 0.0 | 0.0 | 0.02 | 0.23 | 0.12 | 67 | 1010.5 | |
| 20260505091357 | 56 | 0.0 | 0.0 | 0.02 | 0.23 | 0.12 | 68 | 1010.5 | |
| 20260505091334 | 56 | 0.0 | 0.0 | 0.02 | 0.23 | 0.11 | 68 | 1010.5 | |
| 20260505091312 | 56 | 0.0 | 0.0 | 0.02 | 0.23 | 0.11 | 68 | 1010.6 | |
| 20260505090945 | 56 | 0.0 | 0.0 | 0.02 | 0.23 | 0.11 | 69 | 1010.5 | |
| 20260505090853 | 56 | 0.0 | 0.0 | 0.02 | 0.23 | 0.11 | 69 | 1010.5 | |
| 20260505090833 | 56 | 0.0 | 0.0 | 0.02 | 0.23 | 0.11 | 69 | 1010.6 | |
| 20260505090809 | 56 | 0.0 | 0.0 | 0.02 | 0.23 | 0.11 | 69 | 1010.6 | |
| 20260505090453 | 56 | 0.0 | 0.0 | 0.02 | 0.23 | 0.10 | 69 | 1010.5 | |
| 20260505090439 | 56 | 0.0 | 0.0 | 0.01 | 0.23 | 0.10 | 69 | 1010.5 | |
| 20260505090415 | 56 | 0.0 | 0.0 | 0.01 | 0.23 | 0.10 | 69 | 1010.5 | |
| 20260505090059 | 55 | 0.0 | 0.0 | 0.01 | 0.23 | 0.10 | 68 | 1010.5 | |
| 20260505085944 | 55 | 0.0 | 0.0 | 0.01 | 0.22 | 0.10 | 68 | 1010.5 | |
| 20260505085916 | 55 | 0.0 | 0.0 | 0.01 | 0.22 | 0.10 | 68 | 1010.5 | |
| 20260505085852 | 55 | 0.0 | 0.0 | 0.01 | 0.22 | 0.10 | 68 | 1010.5 | |
| 20260505085530 | 55 | 0.0 | 0.0 | 0.00 | 0.22 | 0.09 | 68 | 1010.4 | |
| 20260505085432 | 55 | 0.0 | 0.0 | 0.00 | 0.22 | 0.09 | 68 | 1010.5 | |
| 20260505085334 | 55 | 0.0 | 0.0 | 0.00 | 0.22 | 0.09 | 68 | 1010.5 | |
| 20260505085234 | 55 | 0.0 | 0.0 | 0.00 | 0.22 | 0.09 | 68 | 1010.5 | |
| 20260505085120 | 55 | 0.0 | 0.0 | 0.00 | 0.22 | 0.09 | 68 | 1010.5 | |
| 20260505085019 | 55 | 0.0 | 0.0 | 0.00 | 0.22 | 0.09 | 68 | 1010.5 | |
| 20260505084918 | 55 | 0.0 | 0.0 | 0.00 | 0.22 | 0.09 | 68 | 1010.5 | |
| 20260505084817 | 55 | 0.0 | 0.0 | 0.00 | 0.22 | 0.09 | 67 | 1010.5 | |
| 20260505084715 | 55 | 0.0 | 0.0 | 0.00 | 0.22 | 0.09 | 67 | 1010.4 | |
| 20260505084611 | 55 | 0.0 | 0.0 | 0.00 | 0.22 | 0.09 | 66 | 1010.3 | |
| 20260505084510 | 55 | 0.0 | 0.0 | 0.00 | 0.22 | 0.09 | 66 | 1010.4 | |
| 20260505084408 | 55 | 0.0 | 0.0 | 0.00 | 0.22 | 0.09 | 66 | 1010.3 | |
| 20260505084309 | 55 | 0.0 | 0.0 | 0.00 | 0.22 | 0.09 | 66 | 1010.4 | |
| 20260505084211 | 55 | 0.0 | 0.0 | 0.00 | 0.22 | 0.09 | 66 | 1010.4 | |
| 20260505084105 | 55 | 0.0 | 0.0 | 0.00 | 0.22 | 0.09 | 66 | 1010.3 | |
| 20260505084005 | 55 | 0.0 | 0.0 | 0.00 | 0.22 | 0.09 | 66 | 1010.4 | |
| 20260505083902 | 55 | 0.0 | 0.0 | 0.00 | 0.22 | 0.09 | 66 | 1010.3 | |
| 20260505083803 | 55 | 0.0 | 0.0 | 0.00 | 0.22 | 0.09 | 66 | 1010.3 | |
| 20260505083703 | 55 | 0.0 | 0.0 | 0.00 | 0.22 | 0.09 | 66 | 1010.3 | |
| 20260505083603 | 55 | 0.0 | 0.0 | 0.00 | 0.22 | 0.09 | 66 | 1010.3 | |
| 20260505083504 | 55 | 0.0 | 0.0 | 0.00 | 0.22 | 0.09 | 66 | 1010.3 | |
| 20260505083404 | 55 | 0.0 | 0.0 | 0.00 | 0.22 | 0.09 | 65 | 1010.3 | |
| 20260505083303 | 55 | 0.0 | 0.0 | 0.00 | 0.22 | 0.09 | 65 | 1010.2 | |
| 20260505083203 | 55 | 0.0 | 0.0 | 0.00 | 0.22 | 0.09 | 65 | 1010.2 | |
| 20260505083103 | 55 | 0.0 | 0.0 | 0.00 | 0.22 | 0.09 | 65 | 1010.3 | |
| 20260505083003 | 55 | 0.0 | 0.0 | 0.00 | 0.22 | 0.09 | 65 | 1010.2 | |
| 20260505082904 | 55 | 0.0 | 0.0 | 0.00 | 0.22 | 0.09 | 65 | 1010.3 | |
| 20260505082802 | 55 | 0.0 | 0.0 | 0.00 | 0.22 | 0.09 | 65 | 1010.2 | |
| 20260505082702 | 55 | 0.0 | 0.0 | 0.00 | 0.22 | 0.09 | 65 | 1010.3 | |
| 20260505082600 | 55 | 0.0 | 0.0 | 0.00 | 0.22 | 0.09 | 65 | 1010.2 | |
| 20260505082500 | 55 | 0.0 | 0.0 | 0.00 | 0.22 | 0.09 | 65 | 1010.3 | |
| 20260505082352 | 55 | 0.0 | 0.0 | 0.00 | 0.22 | 0.09 | 64 | 1010.2 | |
| 20260505082251 | 55 | 0.0 | 0.0 | 0.00 | 0.22 | 0.09 | 64 | 1010.2 | |
| 20260505082152 | 55 | 0.0 | 0.0 | 0.00 | 0.22 | 0.09 | 64 | 1010.2 | |
| 20260505082057 | 55 | 0.0 | 0.0 | 0.00 | 0.22 | 0.09 | 64 | 1010.2 | |
| 20260505082032 | 55 | 0.0 | 0.0 | 0.00 | 0.22 | 0.09 | 64 | 1010.2 | |
| 20260505082013 | 55 | 0.0 | 0.0 | 0.00 | 0.22 | 0.09 | 64 | 1010.3 | |
| 20260505081643 | 55 | 0.0 | 0.0 | 0.00 | 0.22 | 0.09 | 64 | 1010.3 | |
| 20260505081544 | 55 | 0.0 | 0.0 | 0.00 | 0.22 | 0.09 | 64 | 1010.2 | |
| 20260505081445 | 55 | 0.0 | 0.0 | 0.00 | 0.22 | 0.09 | 64 | 1010.3 | |
| 20260505081344 | 55 | 0.0 | 0.0 | 0.00 | 0.22 | 0.09 | 63 | 1010.3 | |
| 20260505081246 | 55 | 0.0 | 0.0 | 0.00 | 0.22 | 0.09 | 63 | 1010.4 | |
| 20260505081144 | 55 | 0.0 | 0.0 | 0.00 | 0.22 | 0.09 | 63 | 1010.3 | |
| 20260505081043 | 55 | 0.0 | 0.0 | 0.00 | 0.22 | 0.09 | 63 | 1010.3 | |
| 20260505080944 | 55 | 0.0 | 0.0 | 0.01 | 0.22 | 0.09 | 63 | 1010.3 | |
| 20260505080843 | 55 | 0.0 | 0.0 | 0.01 | 0.22 | 0.09 | 63 | 1010.3 | |
| 20260505080746 | 55 | 0.0 | 0.0 | 0.01 | 0.22 | 0.09 | 63 | 1010.3 | |
| 20260505080646 | 55 | 0.0 | 0.0 | 0.01 | 0.22 | 0.09 | 63 | 1010.3 | |
| 20260505080545 | 55 | 0.0 | 0.0 | 0.01 | 0.22 | 0.09 | 63 | 1010.3 | |
| 20260505080443 | 55 | 0.0 | 0.0 | 0.01 | 0.22 | 0.09 | 63 | 1010.3 | |
| 20260505080344 | 55 | 0.0 | 0.0 | 0.01 | 0.22 | 0.09 | 62 | 1010.3 | |
| 20260505080303 | 55 | 0.0 | 0.0 | 0.01 | 0.22 | 0.09 | 62 | 1010.2 | |
| 20260505080238 | 55 | 0.0 | 0.0 | 0.01 | 0.22 | 0.09 | 62 | 1010.2 | |
| 20260505080214 | 55 | 0.0 | 0.0 | 0.01 | 0.22 | 0.09 | 62 | 1010.3 | |
| 20260505080153 | 55 | 0.0 | 0.0 | 0.01 | 0.21 | 0.09 | 62 | 1010.2 | |
| 20260505075912 | 55 | 0.0 | 0.0 | 0.01 | 0.21 | 0.09 | 62 | 1010.3 | |
| 20260505075555 | 55 | 0.0 | 0.0 | 0.01 | 0.21 | 0.09 | 62 | 1010.2 | |
| 20260505075533 | 55 | 0.0 | 0.0 | 0.01 | 0.21 | 0.09 | 62 | 1010.3 | |
| 20260505075510 | 55 | 0.0 | 0.0 | 0.01 | 0.21 | 0.09 | 62 | 1010.3 | |
| 20260505075146 | 55 | 0.0 | 0.0 | 0.01 | 0.21 | 0.09 | 62 | 1010.2 | |
| 20260505075034 | 55 | 0.0 | 0.0 | 0.01 | 0.21 | 0.09 | 62 | 1010.2 | |
| 20260505074933 | 54 | 0.0 | 0.0 | 0.01 | 0.21 | 0.09 | 62 | 1010.2 | |
| 20260505074805 | 54 | 0.0 | 0.0 | 0.01 | 0.21 | 0.09 | 62 | 1010.3 | |
| 20260505074706 | 54 | 0.0 | 0.0 | 0.01 | 0.21 | 0.09 | 62 | 1010.2 | |
| 20260505074603 | 54 | 0.0 | 0.0 | 0.01 | 0.21 | 0.09 | 62 | 1010.3 | |
| 20260505074506 | 54 | 0.0 | 0.0 | 0.01 | 0.21 | 0.09 | 62 | 1010.3 | |
| 20260505074405 | 54 | 0.0 | 0.0 | 0.01 | 0.21 | 0.09 | 62 | 1010.3 | |
| 20260505074304 | 54 | 0.0 | 0.0 | 0.01 | 0.21 | 0.09 | 62 | 1010.3 | |
| 20260505074204 | 54 | 0.0 | 0.0 | 0.01 | 0.21 | 0.09 | 62 | 1010.3 | |
| 20260505074105 | 54 | 0.0 | 0.0 | 0.01 | 0.21 | 0.09 | 62 | 1010.2 | |
| 20260505074004 | 54 | 0.0 | 0.0 | 0.01 | 0.21 | 0.09 | 62 | 1010.3 | |
| 20260505073904 | 54 | 0.0 | 0.0 | 0.01 | 0.21 | 0.09 | 62 | 1010.3 | |
| 20260505073801 | 54 | 0.0 | 0.0 | 0.01 | 0.21 | 0.09 | 62 | 1010.3 | |
| 20260505073701 | 54 | 0.0 | 0.0 | 0.01 | 0.21 | 0.09 | 62 | 1010.3 | |
| 20260505073600 | 54 | 0.0 | 0.0 | 0.01 | 0.21 | 0.09 | 62 | 1010.3 | |
| 20260505073537 | 54 | 0.0 | 0.0 | 0.01 | 0.21 | 0.09 | 62 | 1010.4 | |
| 20260505073512 | 54 | 0.0 | 0.0 | 0.01 | 0.21 | 0.09 | 62 | 1010.4 | |
| 20260505073146 | 54 | 0.0 | 0.0 | 0.01 | 0.21 | 0.09 | 62 | 1010.4 | |
| 20260505073046 | 54 | 0.0 | 0.0 | 0.01 | 0.21 | 0.09 | 62 | 1010.3 | |
| 20260505072945 | 54 | 0.0 | 0.0 | 0.01 | 0.21 | 0.09 | 62 | 1010.3 | |
| 20260505072924 | 54 | 0.0 | 0.0 | 0.01 | 0.21 | 0.09 | 62 | 1010.4 | |
| 20260505072901 | 54 | 0.0 | 0.0 | 0.01 | 0.21 | 0.09 | 62 | 1010.4 | |
| 20260505072611 | 54 | 0.0 | 0.0 | 0.01 | 0.21 | 0.09 | 62 | 1010.4 | |
| 20260505072545 | 54 | 0.0 | 0.0 | 0.01 | 0.21 | 0.09 | 62 | 1010.4 | |
| 20260505072527 | 54 | 0.0 | 0.0 | 0.01 | 0.21 | 0.09 | 62 | 1010.4 | |
| 20260505072243 | 54 | 0.0 | 0.0 | 0.01 | 0.21 | 0.09 | 62 | 1010.4 | |
| 20260505072221 | 54 | 0.0 | 0.0 | 0.01 | 0.21 | 0.09 | 62 | 1010.4 | |
| 20260505071932 | 54 | 0.0 | 0.0 | 0.01 | 0.21 | 0.09 | 62 | 1010.4 | |
| 20260505071603 | 54 | 0.0 | 0.0 | 0.01 | 0.21 | 0.09 | 62 | 1010.5 | |
| 20260505071513 | 54 | 0.0 | 0.0 | 0.01 | 0.21 | 0.09 | 62 | 1010.4 | |
| 20260505071450 | 54 | 0.0 | 0.0 | 0.01 | 0.21 | 0.09 | 62 | 1010.5 | |
| 20260505071427 | 54 | 0.0 | 0.0 | 0.01 | 0.21 | 0.09 | 62 | 1010.5 | |
| 20260505071114 | 54 | 0.0 | 0.0 | 0.01 | 0.21 | 0.09 | 62 | 1010.5 | |
| 20260505071050 | 54 | 0.0 | 0.0 | 0.00 | 0.21 | 0.09 | 62 | 1010.5 | |
| 20260505071027 | 54 | 0.0 | 0.0 | 0.00 | 0.21 | 0.09 | 62 | 1010.5 | |
| 20260505070703 | 54 | 0.0 | 0.0 | 0.00 | 0.21 | 0.09 | 62 | 1010.5 | |
| 20260505070602 | 54 | 0.0 | 0.0 | 0.00 | 0.21 | 0.09 | 62 | 1010.5 | |
| 20260505070503 | 54 | 0.0 | 0.0 | 0.00 | 0.21 | 0.09 | 62 | 1010.5 | |
| 20260505070402 | 54 | 0.0 | 0.0 | 0.00 | 0.21 | 0.09 | 62 | 1010.5 | |
| 20260505070302 | 54 | 0.0 | 0.0 | 0.00 | 0.21 | 0.09 | 62 | 1010.5 | |
| 20260505070204 | 54 | 0.0 | 0.0 | 0.00 | 0.21 | 0.09 | 62 | 1010.5 | |
| 20260505070106 | 54 | 0.0 | 0.0 | 0.00 | 0.21 | 0.09 | 62 | 1010.6 | |
| 20260505070005 | 54 | 0.0 | 0.0 | 0.00 | 0.21 | 0.09 | 62 | 1010.5 | |
| 20260505065912 | 54 | 0.0 | 0.0 | 0.00 | 0.21 | 0.09 | 62 | 1010.6 | |
| 20260505065850 | 54 | 0.0 | 0.0 | 0.00 | 0.21 | 0.09 | 62 | 1010.6 | |
| 20260505065827 | 54 | 0.0 | 0.0 | 0.00 | 0.21 | 0.09 | 62 | 1010.6 | |
| 20260505065536 | 53 | 0.0 | 0.0 | 0.00 | 0.21 | 0.09 | 62 | 1010.7 | |
| 20260505065512 | 53 | 0.0 | 0.0 | 0.00 | 0.21 | 0.09 | 62 | 1010.6 | |
| 20260505065454 | 54 | 0.0 | 0.0 | 0.00 | 0.21 | 0.09 | 62 | 1010.6 | |
| 20260505065433 | 54 | 0.0 | 0.0 | 0.00 | 0.21 | 0.09 | 62 | 1010.7 | |
| 20260505065149 | 54 | 0.0 | 0.0 | 0.00 | 0.21 | 0.09 | 62 | 1010.7 | |
| 20260505064912 | 54 | 0.0 | 0.0 | 0.00 | 0.21 | 0.09 | 62 | 1010.8 | |
| 20260505064854 | 54 | 0.0 | 0.0 | 0.00 | 0.21 | 0.09 | 62 | 1010.8 | |
| 20260505064834 | 54 | 0.0 | 0.0 | 0.00 | 0.21 | 0.09 | 62 | 1010.8 | |
| 20260505064812 | 53 | 0.0 | 0.0 | 0.00 | 0.21 | 0.09 | 62 | 1010.8 | |
| 20260505064523 | 53 | 0.0 | 0.0 | 0.00 | 0.21 | 0.09 | 62 | 1010.9 | |
| 20260505064502 | 53 | 0.0 | 0.0 | 0.00 | 0.21 | 0.09 | 63 | 1010.9 | |
| 20260505064439 | 53 | 0.0 | 0.0 | 0.00 | 0.21 | 0.09 | 63 | 1010.8 | |
| 20260505064414 | 53 | 0.0 | 0.0 | 0.00 | 0.21 | 0.09 | 63 | 1010.9 | |
| 20260505064125 | 53 | 0.0 | 0.0 | 0.00 | 0.21 | 0.09 | 63 | 1010.9 | |
| 20260505063608 | 53 | 0.0 | 0.0 | 0.01 | 0.21 | 0.09 | 63 | 1011.1 | |
| 20260505063245 | 53 | 0.0 | 0.0 | 0.01 | 0.21 | 0.09 | 63 | 1011.1 | |
| 20260505063145 | 53 | 0.0 | 0.0 | 0.01 | 0.21 | 0.09 | 63 | 1010.9 | |
| 20260505063044 | 53 | 0.0 | 0.0 | 0.01 | 0.21 | 0.09 | 63 | 1011.1 | |
| 20260505062932 | 53 | 0.0 | 0.0 | 0.01 | 0.21 | 0.09 | 63 | 1011.1 | |
| 20260505062833 | 53 | 0.0 | 0.0 | 0.01 | 0.21 | 0.09 | 63 | 1011.1 | |
| 20260505062747 | 53 | 0.0 | 0.0 | 0.01 | 0.21 | 0.09 | 63 | 1011.2 | |
| 20260505062729 | 53 | 0.0 | 0.0 | 0.01 | 0.21 | 0.09 | 63 | 1011.2 | |
| 20260505062405 | 53 | 0.0 | 0.0 | 0.01 | 0.21 | 0.09 | 63 | 1011.2 | |
| 20260505062330 | 53 | 0.0 | 0.0 | 0.01 | 0.21 | 0.09 | 63 | 1011.1 | |
| 20260505062311 | 53 | 0.0 | 0.0 | 0.01 | 0.21 | 0.09 | 63 | 1011.2 | |
| 20260505062249 | 53 | 0.0 | 0.0 | 0.01 | 0.21 | 0.09 | 64 | 1011.2 | |
| 20260505062225 | 53 | 0.0 | 0.0 | 0.01 | 0.21 | 0.09 | 64 | 1011.2 | |
| 20260505062206 | 53 | 0.0 | 0.0 | 0.01 | 0.21 | 0.09 | 64 | 1011.3 | |
| 20260505062143 | 53 | 0.0 | 0.0 | 0.01 | 0.21 | 0.09 | 64 | 1011.4 | |
| 20260505062124 | 53 | 0.0 | 0.0 | 0.02 | 0.21 | 0.09 | 64 | 1011.4 | |
| 20260505061849 | 53 | 0.0 | 0.0 | 0.02 | 0.21 | 0.09 | 64 | 1011.4 | |
| 20260505061605 | 53 | 0.0 | 0.0 | 0.02 | 0.21 | 0.09 | 64 | 1011.5 | |
| 20260505061059 | 53 | 0.0 | 0.0 | 0.02 | 0.21 | 0.09 | 64 | 1011.6 | |
| 20260505060743 | 53 | 0.0 | 0.0 | 0.02 | 0.21 | 0.09 | 64 | 1011.5 | |
| 20260505060504 | 53 | 0.0 | 0.0 | 0.02 | 0.21 | 0.09 | 64 | 1011.7 | |
| 20260505060334 | 53 | 0.0 | 0.0 | 0.02 | 0.21 | 0.09 | 65 | 1011.7 | |
| 20260505060234 | 53 | 0.0 | 0.0 | 0.02 | 0.21 | 0.09 | 65 | 1011.7 | |
| 20260505060122 | 53 | 0.0 | 0.0 | 0.02 | 0.21 | 0.09 | 65 | 1011.8 | |
| 20260505060001 | 53 | 0.0 | 0.0 | 0.02 | 0.20 | 0.09 | 65 | 1011.8 | |
| 20260505055900 | 53 | 0.0 | 0.0 | 0.02 | 0.20 | 0.09 | 65 | 1011.8 | |
| 20260505055801 | 53 | 0.0 | 0.0 | 0.02 | 0.20 | 0.09 | 65 | 1011.8 | |
| 20260505055700 | 53 | 0.0 | 0.0 | 0.02 | 0.20 | 0.09 | 65 | 1011.8 | |
| 20260505055556 | 53 | 0.0 | 0.0 | 0.02 | 0.20 | 0.09 | 65 | 1011.8 | |
| 20260505055433 | 53 | 0.0 | 0.0 | 0.02 | 0.20 | 0.09 | 65 | 1011.9 | |
| 20260505055336 | 53 | 0.0 | 0.0 | 0.02 | 0.20 | 0.09 | 65 | 1011.8 | |
| 20260505055250 | 53 | 0.0 | 0.0 | 0.02 | 0.20 | 0.09 | 65 | 1011.9 | |
| 20260505055237 | 53 | 0.0 | 0.0 | 0.02 | 0.20 | 0.09 | 65 | 1011.9 | |
| 20260505054915 | 53 | 0.0 | 0.0 | 0.02 | 0.20 | 0.09 | 65 | 1011.9 | |
| 20260505054853 | 53 | 0.0 | 0.0 | 0.02 | 0.20 | 0.09 | 65 | 1011.9 | |
| 20260505054836 | 53 | 0.0 | 0.0 | 0.02 | 0.20 | 0.09 | 65 | 1011.9 | |
| 20260505054505 | 53 | 0.0 | 0.0 | 0.02 | 0.20 | 0.09 | 65 | 1011.9 | |
| 20260505054403 | 53 | 0.0 | 0.0 | 0.02 | 0.20 | 0.09 | 65 | 1011.9 | |
| 20260505054303 | 53 | 0.0 | 0.0 | 0.02 | 0.20 | 0.09 | 65 | 1011.9 | |
| 20260505054202 | 53 | 0.0 | 0.0 | 0.02 | 0.20 | 0.09 | 65 | 1011.9 | |
| 20260505054059 | 53 | 0.0 | 0.0 | 0.02 | 0.20 | 0.09 | 65 | 1011.9 | |
| 20260505053958 | 53 | 0.0 | 0.0 | 0.02 | 0.20 | 0.09 | 65 | 1011.9 | |
| 20260505053907 | 53 | 0.0 | 0.0 | 0.02 | 0.20 | 0.09 | 65 | 1011.9 | |
| 20260505053843 | 53 | 0.0 | 0.0 | 0.02 | 0.20 | 0.08 | 65 | 1012.0 | |
| 20260505053824 | 53 | 0.0 | 0.0 | 0.02 | 0.20 | 0.08 | 65 | 1012.0 | |
| 20260505053522 | 53 | 0.0 | 0.0 | 0.02 | 0.20 | 0.08 | 65 | 1011.9 | |
| 20260505053458 | 53 | 0.0 | 0.0 | 0.02 | 0.20 | 0.08 | 65 | 1012.0 | |
| 20260505053435 | 53 | 0.0 | 0.0 | 0.02 | 0.20 | 0.08 | 65 | 1011.9 | |
| 20260505053414 | 53 | 0.0 | 0.0 | 0.02 | 0.20 | 0.08 | 65 | 1012.0 | |
| 20260505053354 | 53 | 0.0 | 0.0 | 0.02 | 0.20 | 0.08 | 66 | 1012.0 | |
| 20260505053055 | 53 | 0.0 | 0.0 | 0.02 | 0.20 | 0.08 | 66 | 1012.0 | |
| 20260505053035 | 53 | 0.0 | 0.0 | 0.02 | 0.20 | 0.08 | 66 | 1012.0 | |
| 20260505053015 | 53 | 0.0 | 0.0 | 0.02 | 0.20 | 0.08 | 66 | 1012.0 | |
| 20260505052952 | 53 | 0.0 | 0.0 | 0.02 | 0.20 | 0.08 | 66 | 1012.0 | |
| 20260505052932 | 53 | 0.0 | 0.0 | 0.02 | 0.20 | 0.08 | 66 | 1012.0 | |
| 20260505052642 | 53 | 0.0 | 0.0 | 0.02 | 0.20 | 0.08 | 66 | 1012.0 | |
| 20260505052126 | 53 | 0.0 | 0.0 | 0.02 | 0.20 | 0.08 | 66 | 1012.0 | |
| 20260505051758 | 53 | 0.0 | 0.0 | 0.03 | 0.20 | 0.07 | 66 | 1012.0 | |
| 20260505051658 | 53 | 0.0 | 0.0 | 0.02 | 0.20 | 0.07 | 66 | 1012.0 | |
| 20260505051605 | 53 | 0.0 | 0.0 | 0.02 | 0.20 | 0.07 | 66 | 1012.0 | |
| 20260505051542 | 53 | 0.0 | 0.0 | 0.02 | 0.20 | 0.07 | 66 | 1012.0 | |
| 20260505051523 | 53 | 0.0 | 0.0 | 0.03 | 0.20 | 0.07 | 66 | 1012.0 | |
| 20260505051503 | 53 | 0.0 | 0.0 | 0.03 | 0.20 | 0.07 | 66 | 1011.9 | |
| 20260505051226 | 53 | 0.0 | 0.0 | 0.03 | 0.20 | 0.07 | 66 | 1012.0 | |
| 20260505050914 | 53 | 0.0 | 0.0 | 0.03 | 0.20 | 0.07 | 67 | 1012.0 | |
| 20260505050852 | 53 | 0.0 | 0.0 | 0.03 | 0.20 | 0.07 | 67 | 1012.1 | |
| 20260505050834 | 53 | 0.0 | 0.0 | 0.03 | 0.20 | 0.07 | 67 | 1012.1 | |
| 20260505050814 | 53 | 0.0 | 0.0 | 0.04 | 0.20 | 0.07 | 67 | 1012.1 | |
| 20260505050525 | 53 | 0.0 | 0.0 | 0.04 | 0.20 | 0.07 | 67 | 1012.1 | |
| 20260505050505 | 53 | 0.0 | 0.0 | 0.04 | 0.20 | 0.07 | 67 | 1012.2 | |
| 20260505050442 | 53 | 0.0 | 0.0 | 0.04 | 0.20 | 0.07 | 67 | 1012.2 | |
| 20260505050420 | 53 | 0.0 | 0.0 | 0.04 | 0.20 | 0.07 | 67 | 1012.2 | |
| 20260505050128 | 53 | 0.0 | 0.0 | 0.05 | 0.15 | 0.07 | 67 | 1012.2 | |
| 20260505050105 | 53 | 0.0 | 0.0 | 0.05 | 0.15 | 0.07 | 67 | 1012.2 | |
| 20260505041723 | 53 | 0.0 | 0.0 | 0.04 | 0.15 | 0.04 | 69 | 1012.3 | |
| 20260505041437 | 53 | 0.0 | 0.0 | 0.04 | 0.15 | 0.04 | 69 | 1012.3 | |
| 20260505041410 | 53 | 0.0 | 0.0 | 0.04 | 0.15 | 0.03 | 69 | 1012.3 | |
| 20260505041352 | 53 | 0.0 | 0.0 | 0.03 | 0.15 | 0.03 | 69 | 1012.3 | |
| 20260505041334 | 53 | 0.0 | 0.0 | 0.03 | 0.15 | 0.03 | 69 | 1012.3 | |
| 20260505041313 | 53 | 0.0 | 0.0 | 0.03 | 0.15 | 0.03 | 69 | 1012.3 | |
| 20260505041024 | 53 | 0.0 | 0.0 | 0.02 | 0.15 | 0.03 | 69 | 1012.3 | |
| 20260505041001 | 53 | 0.0 | 0.0 | 0.02 | 0.15 | 0.02 | 69 | 1012.3 | |
| 20260505040935 | 53 | 0.0 | 0.0 | 0.00 | 0.13 | 0.02 | 69 | 1012.3 | |
| 20260505040644 | 53 | 0.0 | 0.0 | 0.00 | 0.13 | 0.02 | 69 | 1012.3 | |
| 20260505040130 | 53 | 0.0 | 0.0 | 0.00 | 0.13 | 0.02 | 69 | 1012.4 | |
| 20260505035619 | 53 | 0.0 | 0.0 | 0.00 | 0.13 | 0.02 | 69 | 1012.4 | |
| 20260505035558 | 53 | 0.0 | 0.0 | 0.00 | 0.13 | 0.02 | 70 | 1012.4 | |
| 20260505035534 | 53 | 0.0 | 0.0 | 0.00 | 0.13 | 0.02 | 70 | 1012.4 | |
| 20260505035507 | 53 | 0.0 | 0.0 | 0.00 | 0.13 | 0.02 | 70 | 1012.4 | |
| 20260505035217 | 53 | 0.0 | 0.0 | 0.00 | 0.13 | 0.01 | 70 | 1012.5 | |
| 20260505034702 | 53 | 0.0 | 0.0 | 0.00 | 0.13 | 0.01 | 70 | 1012.5 | |
| 20260505034416 | 53 | 0.0 | 0.0 | 0.00 | 0.13 | 0.00 | 70 | 1012.4 | |
| 20260505034125 | 53 | 0.0 | 0.0 | 0.00 | 0.13 | 0.00 | 70 | 1012.5 | |
| 20260505033757 | 53 | 0.0 | 0.0 | 0.00 | 0.13 | 0.00 | 70 | 1012.5 | |
| 20260505033656 | 53 | 0.0 | 0.0 | 0.00 | 0.13 | 0.00 | 70 | 1012.5 | |
| 20260505033558 | 53 | 0.0 | 0.0 | 0.00 | 0.13 | 0.00 | 70 | 1012.5 | |
| 20260505033450 | 53 | 0.0 | 0.0 | 0.00 | 0.13 | 0.00 | 70 | 1012.6 | |
| 20260505033347 | 53 | 0.0 | 0.0 | 0.00 | 0.13 | 0.00 | 70 | 1012.6 | |
| 20260505033244 | 53 | 0.0 | 0.0 | 0.00 | 0.13 | 0.00 | 70 | 1012.5 | |
| 20260505033139 | 53 | 0.0 | 0.0 | 0.00 | 0.13 | 0.00 | 70 | 1012.6 | |
| 20260505033032 | 53 | 0.0 | 0.0 | 0.00 | 0.13 | 0.00 | 71 | 1012.6 | |
| 20260505032933 | 53 | 0.0 | 0.0 | 0.00 | 0.13 | 0.00 | 71 | 1012.6 | |
| 20260505032835 | 53 | 0.0 | 0.0 | 0.00 | 0.13 | 0.00 | 71 | 1012.7 | |
| 20260505032732 | 53 | 0.0 | 0.0 | 0.00 | 0.13 | 0.00 | 71 | 1012.6 | |
| 20260505032632 | 53 | 0.0 | 0.0 | 0.00 | 0.13 | 0.00 | 71 | 1012.7 | |
| 20260505032534 | 53 | 0.0 | 0.0 | 0.00 | 0.13 | 0.00 | 71 | 1012.6 | |
| 20260505032418 | 53 | 0.0 | 0.0 | 0.00 | 0.13 | 0.00 | 71 | 1012.6 | |
| 20260505032318 | 53 | 0.0 | 0.0 | 0.00 | 0.13 | 0.00 | 71 | 1012.7 | |
| 20260505032213 | 53 | 0.0 | 0.0 | 0.00 | 0.13 | 0.00 | 71 | 1012.6 | |
| 20260505032111 | 53 | 0.0 | 0.0 | 0.00 | 0.13 | 0.00 | 71 | 1012.6 | |
| 20260505032007 | 53 | 0.0 | 0.0 | 0.00 | 0.13 | 0.00 | 71 | 1012.6 | |
| 20260505031918 | 53 | 0.0 | 0.0 | 0.00 | 0.13 | 0.00 | 71 | 1012.7 | |
| 20260505031853 | 53 | 0.0 | 0.0 | 0.00 | 0.13 | 0.00 | 71 | 1012.6 | |
| 20260505031831 | 53 | 0.0 | 0.0 | 0.00 | 0.13 | 0.00 | 71 | 1012.6 | |
| 20260505031504 | 53 | 0.0 | 0.0 | 0.00 | 0.13 | 0.00 | 71 | 1012.6 | |
| 20260505031403 | 53 | 0.0 | 0.0 | 0.00 | 0.13 | 0.00 | 71 | 1012.6 | |
| 20260505031302 | 53 | 0.0 | 0.0 | 0.00 | 0.13 | 0.00 | 71 | 1012.6 | |
| 20260505031202 | 53 | 0.0 | 0.0 | 0.00 | 0.13 | 0.00 | 71 | 1012.6 | |
| 20260505031102 | 53 | 0.0 | 0.0 | 0.00 | 0.13 | 0.00 | 71 | 1012.6 | |
| 20260505031002 | 53 | 0.0 | 0.0 | 0.00 | 0.13 | 0.00 | 71 | 1012.6 | |
| 20260505030902 | 53 | 0.0 | 0.0 | 0.00 | 0.13 | 0.00 | 71 | 1012.5 | |
| 20260505030804 | 53 | 0.0 | 0.0 | 0.00 | 0.13 | 0.00 | 71 | 1012.6 | |
| 20260505030703 | 53 | 0.0 | 0.0 | 0.00 | 0.13 | 0.00 | 71 | 1012.6 | |
| 20260505030555 | 53 | 0.0 | 0.0 | 0.00 | 0.13 | 0.00 | 71 | 1012.6 | |
| 20260505030455 | 53 | 0.0 | 0.0 | 0.00 | 0.13 | 0.00 | 71 | 1012.6 | |
| 20260505030444 | 53 | 0.0 | 0.0 | 0.00 | 0.13 | 0.00 | 71 | 1012.5 | |
| 20260505030419 | 53 | 0.0 | 0.0 | 0.00 | 0.13 | 0.00 | 71 | 1012.5 | |
| 20260505030141 | 53 | 0.0 | 0.0 | 0.00 | 0.13 | 0.00 | 71 | 1012.4 | |
| 20260505030116 | 53 | 0.0 | 0.0 | 0.00 | 0.13 | 0.00 | 71 | 1012.4 | |
| 20260505030043 | 53 | 0.0 | 0.0 | 0.00 | 0.13 | 0.00 | 71 | 1012.4 | |
| 20260505030025 | 53 | 0.0 | 0.0 | 0.00 | 0.13 | 0.00 | 71 | 1012.4 | |
| 20260505025733 | 53 | 0.0 | 0.0 | 0.00 | 0.13 | 0.00 | 71 | 1012.3 | |
| 20260505025445 | 53 | 0.0 | 0.0 | 0.00 | 0.13 | 0.00 | 71 | 1012.3 | |
| 20260505025156 | 53 | 0.0 | 0.0 | 0.00 | 0.13 | 0.00 | 71 | 1012.3 | |
| 20260505024905 | 53 | 0.0 | 0.0 | 0.00 | 0.13 | 0.00 | 71 | 1012.3 | |
| 20260505024843 | 53 | 0.0 | 0.0 | 0.00 | 0.13 | 0.00 | 71 | 1012.3 | |
| 20260505024820 | 53 | 0.0 | 0.0 | 0.00 | 0.13 | 0.00 | 71 | 1012.2 | |
| 20260505024754 | 53 | 0.0 | 0.0 | 0.00 | 0.13 | 0.00 | 71 | 1012.2 | |
| 20260505024734 | 53 | 0.0 | 0.0 | 0.00 | 0.13 | 0.00 | 71 | 1012.2 | |
| 20260505024444 | 53 | 0.0 | 0.0 | 0.00 | 0.13 | 0.00 | 71 | 1012.2 | |
| 20260505023906 | 53 | 0.0 | 0.0 | 0.00 | 0.13 | 0.00 | 71 | 1012.2 | |
| 20260505023848 | 53 | 0.0 | 0.0 | 0.00 | 0.13 | 0.00 | 71 | 1012.2 | |
| 20260505023826 | 53 | 0.0 | 0.0 | 0.00 | 0.13 | 0.00 | 70 | 1012.2 | |
| 20260505023540 | 53 | 0.0 | 0.0 | 0.00 | 0.13 | 0.00 | 70 | 1012.2 | |
| 20260505023518 | 53 | 0.0 | 0.0 | 0.00 | 0.13 | 0.00 | 70 | 1012.2 | |
| 20260505023454 | 53 | 0.0 | 0.0 | 0.00 | 0.13 | 0.00 | 70 | 1012.3 | |
| 20260505023209 | 53 | 0.0 | 0.0 | 0.00 | 0.13 | 0.00 | 70 | 1012.2 | |
| 20260505022839 | 53 | 0.0 | 0.0 | 0.00 | 0.13 | 0.00 | 70 | 1012.2 | |
| 20260505022739 | 53 | 0.0 | 0.0 | 0.00 | 0.13 | 0.00 | 70 | 1012.3 | |
| 20260505022645 | 53 | 0.0 | 0.0 | 0.00 | 0.13 | 0.00 | 70 | 1012.2 | |
| 20260505022620 | 53 | 0.0 | 0.0 | 0.00 | 0.13 | 0.00 | 70 | 1012.2 | |
| 20260505022557 | 53 | 0.0 | 0.0 | 0.00 | 0.13 | 0.00 | 70 | 1012.3 | |
| 20260505022231 | 53 | 0.0 | 0.0 | 0.00 | 0.13 | 0.00 | 70 | 1012.2 | |
| 20260505022131 | 53 | 0.0 | 0.0 | 0.00 | 0.13 | 0.00 | 69 | 1012.3 | |
| 20260505022031 | 53 | 0.0 | 0.0 | 0.00 | 0.13 | 0.00 | 69 | 1012.2 | |
| 20260505021933 | 53 | 0.0 | 0.0 | 0.00 | 0.13 | 0.00 | 69 | 1012.3 | |
| 20260505021832 | 53 | 0.0 | 0.0 | 0.00 | 0.13 | 0.00 | 69 | 1012.3 | |
| 20260505021731 | 53 | 0.0 | 0.0 | 0.00 | 0.13 | 0.00 | 69 | 1012.3 | |
| 20260505021639 | 53 | 0.0 | 0.0 | 0.00 | 0.13 | 0.00 | 69 | 1012.4 | |
| 20260505021532 | 53 | 0.0 | 0.0 | 0.00 | 0.13 | 0.00 | 69 | 1012.4 | |
| 20260505021433 | 53 | 0.0 | 0.0 | 0.00 | 0.13 | 0.00 | 69 | 1012.3 | |
| 20260505021331 | 53 | 0.0 | 0.0 | 0.00 | 0.13 | 0.00 | 69 | 1012.3 | |
| 20260505021231 | 53 | 0.0 | 0.0 | 0.00 | 0.13 | 0.00 | 68 | 1012.3 | |
| 20260505021139 | 53 | 0.0 | 0.0 | 0.00 | 0.13 | 0.00 | 68 | 1012.3 | |
| 20260505021115 | 53 | 0.0 | 0.0 | 0.00 | 0.13 | 0.00 | 68 | 1012.3 | |
| 20260505021055 | 53 | 0.0 | 0.0 | 0.00 | 0.13 | 0.00 | 68 | 1012.4 | |
| 20260505021031 | 53 | 0.0 | 0.0 | 0.00 | 0.13 | 0.00 | 68 | 1012.4 | |
| 20260505020738 | 53 | 0.0 | 0.0 | 0.00 | 0.13 | 0.00 | 68 | 1012.3 | |
| 20260505020405 | 53 | 0.0 | 0.0 | 0.00 | 0.13 | 0.00 | 67 | 1012.4 | |
| 20260505020306 | 53 | 0.0 | 0.0 | 0.00 | 0.13 | 0.00 | 67 | 1012.4 | |
| 20260505020207 | 53 | 0.0 | 0.0 | 0.00 | 0.13 | 0.00 | 67 | 1012.4 | |
| 20260505020144 | 53 | 0.0 | 0.0 | 0.00 | 0.13 | 0.00 | 67 | 1012.4 | |
| 20260505020120 | 53 | 0.0 | 0.0 | 0.00 | 0.13 | 0.00 | 67 | 1012.3 | |
| 20260505015752 | 53 | 0.0 | 0.0 | 0.00 | 0.13 | 0.00 | 66 | 1012.3 | |
| 20260505015708 | 53 | 0.0 | 0.0 | 0.00 | 0.13 | 0.00 | 66 | 1012.3 | |
| 20260505015649 | 53 | 0.0 | 0.0 | 0.00 | 0.13 | 0.00 | 66 | 1012.3 | |
| 20260505015626 | 53 | 0.0 | 0.0 | 0.00 | 0.13 | 0.00 | 66 | 1012.3 | |
| 20260505015607 | 53 | 0.0 | 0.0 | 0.00 | 0.13 | 0.00 | 66 | 1012.4 | |
| 20260505015318 | 53 | 0.0 | 0.0 | 0.00 | 0.13 | 0.00 | 65 | 1012.4 | |
| 20260505014953 | 53 | 0.0 | 0.0 | 0.00 | 0.13 | 0.00 | 65 | 1012.3 | |
| 20260505014852 | 53 | 0.0 | 0.0 | 0.00 | 0.13 | 0.00 | 65 | 1012.4 | |
| 20260505014751 | 53 | 0.0 | 0.0 | 0.00 | 0.13 | 0.00 | 65 | 1012.4 | |
| 20260505014653 | 53 | 0.0 | 0.0 | 0.00 | 0.13 | 0.00 | 65 | 1012.4 | |
| 20260505014551 | 53 | 0.0 | 0.0 | 0.00 | 0.13 | 0.00 | 65 | 1012.4 | |
| 20260505014508 | 53 | 0.0 | 0.0 | 0.00 | 0.13 | 0.00 | 65 | 1012.4 | |
| 20260505014444 | 53 | 0.0 | 0.0 | 0.00 | 0.13 | 0.00 | 65 | 1012.4 | |
| 20260505014421 | 53 | 0.0 | 0.0 | 0.00 | 0.13 | 0.00 | 65 | 1012.4 | |
| 20260505014051 | 53 | 0.0 | 0.0 | 0.00 | 0.13 | 0.00 | 65 | 1012.5 | |
| 20260505014007 | 53 | 0.0 | 0.0 | 0.00 | 0.13 | 0.00 | 65 | 1012.4 | |
| 20260505013944 | 53 | 0.0 | 0.0 | 0.00 | 0.13 | 0.00 | 65 | 1012.5 | |
| 20260505013922 | 53 | 0.0 | 0.0 | 0.00 | 0.13 | 0.00 | 65 | 1012.4 | |
| 20260505013552 | 53 | 0.0 | 0.0 | 0.00 | 0.13 | 0.00 | 64 | 1012.5 | |
| 20260505013502 | 53 | 0.0 | 0.0 | 0.00 | 0.13 | 0.00 | 64 | 1012.6 | |
| 20260505013441 | 53 | 0.0 | 0.0 | 0.00 | 0.13 | 0.00 | 64 | 1012.6 | |
| 20260505013418 | 53 | 0.0 | 0.0 | 0.00 | 0.13 | 0.00 | 64 | 1012.6 | |
| 20260505013106 | 53 | 0.0 | 0.0 | 0.00 | 0.13 | 0.00 | 64 | 1012.6 | |
| 20260505013043 | 53 | 0.0 | 0.0 | 0.00 | 0.13 | 0.00 | 64 | 1012.8 | |
| 20260505013026 | 53 | 0.0 | 0.0 | 0.00 | 0.13 | 0.00 | 64 | 1012.6 | |
| 20260505013003 | 53 | 0.0 | 0.0 | 0.00 | 0.13 | 0.00 | 64 | 1012.7 | |
| 20260505012944 | 53 | 0.0 | 0.0 | 0.00 | 0.13 | 0.00 | 64 | 1012.7 | |
| 20260505012925 | 53 | 0.0 | 0.0 | 0.00 | 0.13 | 0.00 | 64 | 1012.6 | |
| 20260505012634 | 53 | 0.0 | 0.0 | 0.00 | 0.13 | 0.00 | 64 | 1012.7 | |
| 20260505012614 | 53 | 0.0 | 0.0 | 0.00 | 0.13 | 0.00 | 64 | 1012.6 | |
| 20260505012552 | 53 | 0.0 | 0.0 | 0.00 | 0.13 | 0.00 | 64 | 1012.7 | |
| 20260505012259 | 53 | 0.0 | 0.0 | 0.00 | 0.13 | 0.00 | 63 | 1012.6 | |
| 20260505012237 | 53 | 0.0 | 0.0 | 0.00 | 0.13 | 0.00 | 63 | 1012.6 | |
| 20260505012214 | 53 | 0.0 | 0.0 | 0.00 | 0.13 | 0.00 | 63 | 1012.6 | |
| 20260505012151 | 53 | 0.0 | 0.0 | 0.00 | 0.13 | 0.00 | 63 | 1012.6 | |
| 20260505012128 | 53 | 0.0 | 0.0 | 0.00 | 0.13 | 0.00 | 63 | 1012.6 | |
| 20260505011840 | 53 | 0.0 | 0.0 | 0.00 | 0.13 | 0.00 | 63 | 1012.6 | |
| 20260505011556 | 53 | 0.0 | 0.0 | 0.00 | 0.13 | 0.00 | 63 | 1012.5 | |
| 20260505011041 | 52 | 0.0 | 0.0 | 0.00 | 0.13 | 0.00 | 63 | 1012.4 | |
| 20260505011021 | 52 | 0.0 | 0.0 | 0.00 | 0.13 | 0.00 | 63 | 1012.3 | |
| 20260505011000 | 52 | 0.0 | 0.0 | 0.00 | 0.13 | 0.00 | 63 | 1012.3 | |
| 20260505010939 | 52 | 0.0 | 0.0 | 0.00 | 0.13 | 0.00 | 63 | 1012.3 | |
| 20260505010912 | 52 | 0.0 | 0.0 | 0.00 | 0.13 | 0.00 | 64 | 1012.3 | |
| 20260505010849 | 52 | 0.0 | 0.0 | 0.00 | 0.13 | 0.00 | 64 | 1012.3 | |
| 20260505010559 | 52 | 0.0 | 0.0 | 0.00 | 0.13 | 0.00 | 64 | 1012.3 | |
| 20260505010534 | 52 | 0.0 | 0.0 | 0.00 | 0.13 | 0.00 | 64 | 1012.3 | |
| 20260505010510 | 52 | 0.0 | 0.0 | 0.00 | 0.13 | 0.00 | 64 | 1012.3 | |
| 20260505010448 | 52 | 0.0 | 0.0 | 0.00 | 0.13 | 0.00 | 64 | 1012.4 | |
| 20260505010429 | 51 | 0.0 | 0.0 | 0.00 | 0.13 | 0.00 | 64 | 1012.4 | |
| 20260505010140 | 51 | 0.0 | 0.0 | 0.00 | 0.13 | 0.00 | 64 | 1012.4 | |
| 20260505010115 | 51 | 0.0 | 0.0 | 0.00 | 0.13 | 0.00 | 64 | 1012.5 | |
| 20260505010037 | 51 | 0.0 | 0.0 | 0.00 | 0.13 | 0.00 | 64 | 1012.5 | |
| 20260505005746 | 51 | 0.0 | 0.0 | 0.00 | 0.13 | 0.00 | 65 | 1012.5 | |
| 20260505005222 | 51 | 0.0 | 0.0 | 0.00 | 0.13 | 0.00 | 65 | 1012.3 | |
| 20260505004935 | 51 | 0.0 | 0.0 | 0.00 | 0.13 | 0.00 | 65 | 1012.3 | |
| 20260505004642 | 51 | 0.0 | 0.0 | 0.00 | 0.13 | 0.00 | 65 | 1012.4 | |
| 20260505004356 | 51 | 0.0 | 0.0 | 0.00 | 0.13 | 0.00 | 65 | 1012.4 | |
| 20260505004340 | 51 | 0.0 | 0.0 | 0.00 | 0.13 | 0.00 | 65 | 1012.5 | |
| 20260505004318 | 51 | 0.0 | 0.0 | 0.00 | 0.13 | 0.00 | 65 | 1012.6 | |
| 20260505004253 | 51 | 0.0 | 0.0 | 0.00 | 0.13 | 0.00 | 65 | 1012.6 | |
| 20260505004004 | 51 | 0.0 | 0.0 | 0.00 | 0.13 | 0.00 | 65 | 1012.7 | |
| 20260505003400 | 52 | 0.0 | 0.0 | 0.00 | 0.13 | 0.00 | 65 | 1012.7 | |
| 20260505003259 | 52 | 0.0 | 0.0 | 0.00 | 0.13 | 0.00 | 65 | 1012.8 | |
| 20260505003202 | 52 | 0.0 | 0.0 | 0.00 | 0.13 | 0.00 | 65 | 1012.8 | |
| 20260505003140 | 52 | 0.0 | 0.0 | 0.00 | 0.13 | 0.00 | 65 | 1012.8 | |
| 20260505003117 | 52 | 0.0 | 0.0 | 0.00 | 0.13 | 0.00 | 65 | 1012.7 | |
| 20260505003059 | 52 | 0.0 | 0.0 | 0.00 | 0.13 | 0.00 | 65 | 1012.7 | |
| 20260505002810 | 52 | 0.0 | 0.0 | 0.00 | 0.13 | 0.00 | 65 | 1012.7 | |
| 20260505002749 | 52 | 0.0 | 0.0 | 0.00 | 0.13 | 0.00 | 65 | 1012.8 | |
| 20260505002724 | 52 | 0.0 | 0.0 | 0.00 | 0.13 | 0.00 | 65 | 1012.8 | |
| 20260505002700 | 52 | 0.0 | 0.0 | 0.00 | 0.13 | 0.00 | 65 | 1012.8 | |
| 20260505002637 | 52 | 0.0 | 0.0 | 0.00 | 0.13 | 0.00 | 65 | 1012.7 | |
| 20260505002345 | 52 | 0.0 | 0.0 | 0.00 | 0.13 | 0.00 | 65 | 1012.7 | |
| 20260505001810 | 52 | 0.0 | 0.0 | 0.00 | 0.13 | 0.00 | 65 | 1012.7 | |
| 20260505001744 | 52 | 0.0 | 0.0 | 0.00 | 0.13 | 0.00 | 65 | 1012.8 | |
| 20260505001720 | 52 | 0.0 | 0.0 | 0.00 | 0.13 | 0.00 | 65 | 1012.7 | |
| 20260505001656 | 52 | 0.0 | 0.0 | 0.00 | 0.13 | 0.00 | 65 | 1012.7 | |
| 20260505001639 | 52 | 0.0 | 0.0 | 0.00 | 0.13 | 0.00 | 65 | 1012.7 | |
| 20260505001352 | 52 | 0.0 | 0.0 | 0.00 | 0.13 | 0.00 | 65 | 1012.8 | |
| 20260505001329 | 52 | 0.0 | 0.0 | 0.00 | 0.13 | 0.00 | 65 | 1012.8 | |
| 20260505001305 | 52 | 0.0 | 0.0 | 0.00 | 0.13 | 0.00 | 65 | 1012.8 | |
| 20260505001238 | 52 | 0.0 | 0.0 | 0.00 | 0.13 | 0.00 | 65 | 1012.8 | |
| 20260505001213 | 52 | 0.0 | 0.0 | 0.00 | 0.13 | 0.00 | 65 | 1012.8 | |
| 20260505001151 | 52 | 0.0 | 0.0 | 0.00 | 0.13 | 0.00 | 66 | 1012.8 | |
| 20260505000900 | 52 | 0.0 | 0.0 | 0.00 | 0.13 | 0.00 | 66 | 1012.8 | |
| 20260505000836 | 52 | 0.0 | 0.0 | 0.00 | 0.13 | 0.00 | 66 | 1012.8 | |
| 20260505000813 | 52 | 0.0 | 0.0 | 0.00 | 0.13 | 0.00 | 66 | 1012.8 | |
| 20260505000749 | 52 | 0.0 | 0.0 | 0.00 | 0.13 | 0.00 | 66 | 1012.8 | |
| 20260505000457 | 51 | 0.0 | 0.0 | 0.00 | 0.13 | 0.00 | 66 | 1012.8 | |
| 20260505000207 | 51 | 0.0 | 0.0 | 0.00 | 0.13 | 0.00 | 66 | 1012.9 | |
| 20260504235917 | 51 | 0.0 | 0.0 | 0.00 | 0.13 | 0.00 | 66 | 1012.9 | |
| 20260504235626 | 51 | 0.0 | 0.0 | 0.00 | 0.13 | 0.00 | 66 | 1012.9 | |
| 20260504235109 | 51 | 0.0 | 0.0 | 0.00 | 0.13 | 0.00 | 66 | 1012.9 | |
| 20260504235048 | 51 | 0.0 | 0.0 | 0.00 | 0.13 | 0.00 | 66 | 1012.9 | |
| 20260504235027 | 51 | 0.0 | 0.0 | 0.00 | 0.13 | 0.00 | 66 | 1013.0 | |
| 20260504235005 | 51 | 0.0 | 0.0 | 0.00 | 0.13 | 0.00 | 66 | 1013.0 | |
| 20260504234944 | 51 | 0.0 | 0.0 | 0.00 | 0.13 | 0.00 | 66 | 1013.0 | |
| 20260504234655 | 51 | 0.0 | 0.0 | 0.00 | 0.13 | 0.00 | 66 | 1013.0 | |
| 20260504234103 | 51 | 0.0 | 0.0 | 0.00 | 0.13 | 0.00 | 66 | 1013.0 | |
| 20260504234003 | 51 | 0.0 | 0.0 | 0.00 | 0.13 | 0.00 | 66 | 1012.9 | |
| 20260504233904 | 51 | 0.0 | 0.0 | 0.00 | 0.13 | 0.00 | 66 | 1013.0 | |
| 20260504233817 | 51 | 0.0 | 0.0 | 0.00 | 0.13 | 0.00 | 66 | 1013.0 | |
| 20260504233757 | 51 | 0.0 | 0.0 | 0.00 | 0.13 | 0.00 | 66 | 1013.0 | |
| 20260504233733 | 51 | 0.0 | 0.0 | 0.00 | 0.13 | 0.00 | 66 | 1013.0 | |
| 20260504233359 | 51 | 0.0 | 0.0 | 0.00 | 0.13 | 0.00 | 66 | 1013.1 | |
| 20260504233322 | 51 | 0.0 | 0.0 | 0.00 | 0.13 | 0.00 | 66 | 1013.1 | |
| 20260504233258 | 51 | 0.0 | 0.0 | 0.00 | 0.13 | 0.00 | 66 | 1013.1 | |
| 20260504233223 | 51 | 0.0 | 0.0 | 0.00 | 0.13 | 0.00 | 66 | 1013.0 | |
| 20260504232851 | 51 | 0.0 | 0.0 | 0.00 | 0.13 | 0.00 | 66 | 1013.0 | |
| 20260504232752 | 51 | 0.0 | 0.0 | 0.00 | 0.13 | 0.00 | 67 | 1013.0 | |
| 20260504232650 | 51 | 0.0 | 0.0 | 0.00 | 0.13 | 0.00 | 66 | 1013.0 | |
| 20260504232550 | 51 | 0.0 | 0.0 | 0.00 | 0.13 | 0.00 | 66 | 1013.0 | |
| 20260504232450 | 52 | 0.0 | 0.0 | 0.00 | 0.13 | 0.00 | 66 | 1013.2 | |
| 20260504232347 | 52 | 0.0 | 0.0 | 0.00 | 0.13 | 0.00 | 66 | 1013.1 | |
| 20260504232241 | 52 | 0.0 | 0.0 | 0.00 | 0.13 | 0.00 | 66 | 1013.1 | |
| 20260504232137 | 52 | 0.0 | 0.0 | 0.00 | 0.13 | 0.00 | 66 | 1013.1 | |
| 20260504232033 | 52 | 0.0 | 0.0 | 0.00 | 0.13 | 0.00 | 66 | 1013.2 | |
| 20260504231933 | 52 | 0.0 | 0.0 | 0.00 | 0.13 | 0.00 | 66 | 1013.1 | |
| 20260504231834 | 52 | 0.0 | 0.0 | 0.00 | 0.13 | 0.00 | 66 | 1013.2 | |
| 20260504231732 | 52 | 0.0 | 0.0 | 0.00 | 0.13 | 0.00 | 66 | 1013.2 | |
| 20260504231635 | 52 | 0.0 | 0.0 | 0.00 | 0.13 | 0.00 | 66 | 1013.1 | |
| 20260504231527 | 52 | 0.0 | 0.0 | 0.00 | 0.13 | 0.00 | 66 | 1013.1 | |
| 20260504231426 | 52 | 0.0 | 0.0 | 0.00 | 0.13 | 0.00 | 66 | 1013.1 | |
| 20260504231346 | 52 | 0.0 | 0.0 | 0.00 | 0.13 | 0.00 | 66 | 1013.1 | |
| 20260504231321 | 52 | 0.0 | 0.0 | 0.00 | 0.13 | 0.00 | 66 | 1013.2 | |
| 20260504231257 | 52 | 0.0 | 0.0 | 0.00 | 0.13 | 0.00 | 66 | 1013.1 | |
| 20260504230914 | 52 | 0.0 | 0.0 | 0.00 | 0.13 | 0.00 | 66 | 1013.1 | |
| 20260504230822 | 52 | 0.0 | 0.0 | 0.00 | 0.13 | 0.00 | 66 | 1013.2 | |
| 20260504230757 | 52 | 0.0 | 0.0 | 0.00 | 0.13 | 0.00 | 66 | 1013.1 | |
| 20260504230736 | 52 | 0.0 | 0.0 | 0.00 | 0.13 | 0.00 | 66 | 1013.2 | |
| 20260504230418 | 52 | 0.0 | 0.0 | 0.00 | 0.13 | 0.00 | 67 | 1013.2 | |
| 20260504230318 | 52 | 0.0 | 0.0 | 0.00 | 0.13 | 0.00 | 67 | 1013.2 | |
| 20260504230204 | 51 | 0.0 | 0.0 | 0.00 | 0.13 | 0.00 | 67 | 1013.3 | |
| 20260504230105 | 51 | 0.0 | 0.0 | 0.00 | 0.13 | 0.00 | 67 | 1013.2 | |
| 20260504230002 | 52 | 0.0 | 0.0 | 0.00 | 0.13 | 0.00 | 67 | 1013.2 | |
| 20260504225904 | 52 | 0.0 | 0.0 | 0.00 | 0.13 | 0.00 | 67 | 1013.2 | |
| 20260504225805 | 52 | 0.0 | 0.0 | 0.00 | 0.13 | 0.00 | 67 | 1013.3 | |
| 20260504225703 | 52 | 0.0 | 0.0 | 0.00 | 0.13 | 0.00 | 67 | 1013.2 | |
| 20260504225604 | 52 | 0.0 | 0.0 | 0.00 | 0.13 | 0.00 | 67 | 1013.2 | |
| 20260504225503 | 52 | 0.0 | 0.0 | 0.00 | 0.13 | 0.00 | 67 | 1013.3 | |
| 20260504225404 | 51 | 0.0 | 0.0 | 0.00 | 0.13 | 0.00 | 67 | 1013.3 | |
| 20260504225304 | 51 | 0.0 | 0.0 | 0.00 | 0.13 | 0.00 | 67 | 1013.3 | |
| 20260504225219 | 51 | 0.0 | 0.0 | 0.00 | 0.13 | 0.00 | 67 | 1013.3 | |
| 20260504225155 | 51 | 0.0 | 0.0 | 0.00 | 0.13 | 0.00 | 67 | 1013.4 | |
| 20260504225130 | 51 | 0.0 | 0.0 | 0.00 | 0.13 | 0.00 | 67 | 1013.3 | |
| 20260504224816 | 51 | 0.0 | 0.0 | 0.00 | 0.13 | 0.00 | 67 | 1013.4 | |
| 20260504224754 | 51 | 0.0 | 0.0 | 0.00 | 0.13 | 0.00 | 67 | 1013.4 | |
| 20260504224732 | 51 | 0.0 | 0.0 | 0.00 | 0.13 | 0.00 | 67 | 1013.4 | |
| 20260504224359 | 51 | 0.0 | 0.0 | 0.00 | 0.13 | 0.00 | 67 | 1013.5 | |
| 20260504224256 | 51 | 0.0 | 0.0 | 0.00 | 0.13 | 0.00 | 67 | 1013.5 | |
| 20260504224154 | 51 | 0.0 | 0.0 | 0.00 | 0.13 | 0.00 | 67 | 1013.5 | |
| 20260504224051 | 51 | 0.0 | 0.0 | 0.00 | 0.13 | 0.00 | 67 | 1013.6 | |
| 20260504223950 | 51 | 0.0 | 0.0 | 0.00 | 0.13 | 0.00 | 67 | 1013.5 | |
| 20260504223850 | 51 | 0.0 | 0.0 | 0.00 | 0.13 | 0.00 | 67 | 1013.6 | |
| 20260504223749 | 51 | 0.0 | 0.0 | 0.00 | 0.13 | 0.00 | 67 | 1013.6 | |
| 20260504223649 | 51 | 0.0 | 0.0 | 0.00 | 0.13 | 0.00 | 67 | 1013.6 | |
| 20260504223537 | 51 | 0.0 | 0.0 | 0.00 | 0.13 | 0.00 | 67 | 1013.6 | |
| 20260504223437 | 51 | 0.0 | 0.0 | 0.00 | 0.13 | 0.00 | 67 | 1013.6 | |
| 20260504223335 | 51 | 0.0 | 0.0 | 0.00 | 0.13 | 0.00 | 67 | 1013.8 | |
| 20260504223248 | 51 | 0.0 | 0.0 | 0.00 | 0.13 | 0.00 | 67 | 1013.8 | |
| 20260504223226 | 51 | 0.0 | 0.0 | 0.00 | 0.13 | 0.00 | 67 | 1013.6 | |
| 20260504223202 | 51 | 0.0 | 0.0 | 0.00 | 0.13 | 0.00 | 68 | 1013.6 | |
| 20260504222836 | 51 | 0.0 | 0.0 | 0.00 | 0.13 | 0.00 | 68 | 1013.6 | |
| 20260504222809 | 51 | 0.0 | 0.0 | 0.00 | 0.13 | 0.00 | 67 | 1013.6 | |
| 20260504222748 | 51 | 0.0 | 0.0 | 0.00 | 0.13 | 0.00 | 67 | 1013.6 | |
| 20260504222726 | 51 | 0.0 | 0.0 | 0.00 | 0.13 | 0.00 | 67 | 1013.6 | |
| 20260504222434 | 51 | 0.0 | 0.0 | 0.00 | 0.13 | 0.00 | 67 | 1013.6 | |
| 20260504222104 | 51 | 0.0 | 0.0 | 0.00 | 0.13 | 0.00 | 67 | 1013.6 | |
| 20260504222003 | 51 | 0.0 | 0.0 | 0.00 | 0.13 | 0.00 | 68 | 1013.6 | |
| 20260504221902 | 51 | 0.0 | 0.0 | 0.00 | 0.13 | 0.00 | 68 | 1013.5 | |
| 20260504221804 | 51 | 0.0 | 0.0 | 0.00 | 0.13 | 0.00 | 68 | 1013.5 | |
| 20260504221703 | 51 | 0.0 | 0.0 | 0.00 | 0.13 | 0.00 | 68 | 1013.6 | |
| 20260504221615 | 51 | 0.0 | 0.0 | 0.00 | 0.13 | 0.00 | 68 | 1013.6 | |
| 20260504221536 | 51 | 0.0 | 0.0 | 0.00 | 0.13 | 0.00 | 68 | 1013.6 | |
| 20260504221513 | 51 | 0.0 | 0.0 | 0.00 | 0.13 | 0.00 | 68 | 1013.6 | |
| 20260504221450 | 52 | 0.0 | 0.0 | 0.00 | 0.13 | 0.00 | 68 | 1013.6 | |
| 20260504221202 | 52 | 0.0 | 0.0 | 0.00 | 0.13 | 0.00 | 67 | 1013.8 | |
| 20260504221139 | 52 | 0.0 | 0.0 | 0.00 | 0.13 | 0.00 | 67 | 1013.8 | |
| 20260504221118 | 52 | 0.0 | 0.0 | 0.00 | 0.13 | 0.00 | 67 | 1013.8 | |
| 20260504221057 | 52 | 0.0 | 0.0 | 0.00 | 0.13 | 0.00 | 67 | 1013.8 | |
| 20260504221021 | 52 | 0.0 | 0.0 | 0.00 | 0.13 | 0.00 | 67 | 1013.8 | |
| 20260504220717 | 52 | 0.0 | 0.0 | 0.00 | 0.13 | 0.00 | 67 | 1013.6 | |
| 20260504220428 | 52 | 0.0 | 0.0 | 0.00 | 0.13 | 0.00 | 67 | 1013.8 | |
| 20260504220351 | 52 | 0.0 | 0.0 | 0.00 | 0.13 | 0.00 | 67 | 1013.8 | |
| 20260504220044 | 52 | 0.0 | 0.0 | 0.00 | 0.13 | 0.13 | 67 | 1013.9 | |
| 20260504220020 | 52 | 0.0 | 0.0 | 0.00 | 0.13 | 0.13 | 67 | 1013.9 | |
| 20260504215959 | 52 | 0.0 | 0.0 | 0.00 | 0.13 | 0.13 | 67 | 1013.9 | |
| 20260504215935 | 52 | 0.0 | 0.0 | 0.00 | 0.13 | 0.13 | 67 | 1014.0 | |
| 20260504215905 | 52 | 0.0 | 0.0 | 0.00 | 0.13 | 0.13 | 67 | 1014.0 | |
| 20260504215616 | 52 | 0.0 | 0.0 | 0.00 | 0.13 | 0.13 | 67 | 1013.9 | |
| 20260504215600 | 52 | 0.0 | 0.0 | 0.00 | 0.13 | 0.13 | 67 | 1013.8 | |
| 20260504215536 | 52 | 0.0 | 0.0 | 0.00 | 0.13 | 0.13 | 66 | 1013.8 | |
| 20260504215516 | 52 | 0.0 | 0.0 | 0.00 | 0.13 | 0.13 | 66 | 1013.8 | |
| 20260504215452 | 52 | 0.0 | 0.0 | 0.00 | 0.13 | 0.13 | 66 | 1013.9 | |
| 20260504215430 | 52 | 0.0 | 0.0 | 0.00 | 0.13 | 0.13 | 66 | 1013.9 | |
| 20260504215140 | 52 | 0.0 | 0.0 | 0.00 | 0.13 | 0.13 | 66 | 1014.0 | |
| 20260504214625 | 52 | 0.0 | 0.0 | 0.00 | 0.13 | 0.13 | 67 | 1014.0 | |
| 20260504214559 | 52 | 0.0 | 0.0 | 0.00 | 0.13 | 0.13 | 67 | 1014.0 | |
| 20260504214537 | 52 | 0.0 | 0.0 | 0.00 | 0.13 | 0.13 | 67 | 1014.0 | |
| 20260504214243 | 52 | 0.0 | 0.0 | 0.00 | 0.13 | 0.13 | 67 | 1014.1 | |
| 20260504214219 | 52 | 0.0 | 0.0 | 0.00 | 0.13 | 0.13 | 67 | 1014.1 | |
| 20260504214154 | 52 | 0.0 | 0.0 | 0.00 | 0.13 | 0.13 | 67 | 1014.0 | |
| 20260504214132 | 52 | 0.0 | 0.0 | 0.00 | 0.13 | 0.13 | 67 | 1014.0 | |
| 20260504213837 | 51 | 0.0 | 0.0 | 0.00 | 0.13 | 0.13 | 67 | 1014.0 | |
| 20260504213320 | 51 | 0.0 | 0.0 | 0.00 | 0.13 | 0.13 | 68 | 1014.0 | |
| 20260504213255 | 51 | 0.0 | 0.0 | 0.00 | 0.13 | 0.13 | 68 | 1014.0 | |
| 20260504213230 | 51 | 0.0 | 0.0 | 0.00 | 0.13 | 0.13 | 68 | 1014.0 | |
| 20260504213208 | 51 | 0.0 | 0.0 | 0.00 | 0.13 | 0.13 | 68 | 1014.1 | |
| 20260504213149 | 51 | 0.0 | 0.0 | 0.00 | 0.13 | 0.13 | 68 | 1014.0 | |
| 20260504212857 | 51 | 0.0 | 0.0 | 0.00 | 0.13 | 0.13 | 69 | 1014.1 | |
| 20260504212833 | 51 | 0.0 | 0.0 | 0.00 | 0.13 | 0.13 | 69 | 1014.0 | |
| 20260504212817 | 51 | 0.0 | 0.0 | 0.00 | 0.13 | 0.13 | 69 | 1014.0 | |
| 20260504212753 | 51 | 0.0 | 0.0 | 0.00 | 0.13 | 0.13 | 69 | 1014.0 | |
| 20260504212511 | 51 | 0.0 | 0.0 | 0.00 | 0.13 | 0.13 | 69 | 1014.0 | |
| 20260504212453 | 51 | 0.0 | 0.0 | 0.00 | 0.13 | 0.13 | 69 | 1014.0 | |
| 20260504212431 | 51 | 0.0 | 0.0 | 0.00 | 0.13 | 0.13 | 69 | 1014.0 | |
| 20260504212411 | 51 | 0.0 | 0.0 | 0.00 | 0.13 | 0.13 | 69 | 1014.0 | |
| 20260504212349 | 51 | 0.0 | 0.0 | 0.00 | 0.13 | 0.13 | 69 | 1014.1 | |
| 20260504212057 | 51 | 0.0 | 0.0 | 0.00 | 0.13 | 0.13 | 69 | 1014.0 | |
| 20260504211545 | 51 | 0.0 | 0.0 | 0.00 | 0.13 | 0.13 | 70 | 1014.0 | |
| 20260504211253 | 52 | 0.0 | 0.0 | 0.00 | 0.13 | 0.13 | 70 | 1014.0 | |
| 20260504211003 | 52 | 0.0 | 0.0 | 0.00 | 0.13 | 0.13 | 70 | 1014.0 | |
| 20260504210716 | 52 | 0.0 | 0.0 | 0.00 | 0.13 | 0.13 | 70 | 1014.0 | |
| 20260504210414 | 52 | 0.0 | 0.0 | 0.00 | 0.13 | 0.13 | 70 | 1014.1 | |
| 20260504210046 | 52 | 0.0 | 0.0 | 0.00 | 0.13 | 0.13 | 70 | 1014.1 | |
| 20260504205946 | 52 | 0.0 | 0.0 | 0.00 | 0.13 | 0.13 | 70 | 1014.1 | |
| 20260504205846 | 52 | 0.0 | 0.0 | 0.00 | 0.13 | 0.13 | 70 | 1014.0 | |
| 20260504205814 | 52 | 0.0 | 0.0 | 0.00 | 0.13 | 0.13 | 70 | 1014.0 | |
| 20260504205800 | 52 | 0.0 | 0.0 | 0.00 | 0.13 | 0.13 | 69 | 1014.0 | |
| 20260504205433 | 52 | 0.0 | 0.0 | 0.00 | 0.13 | 0.13 | 69 | 1014.0 | |
| 20260504205332 | 52 | 0.0 | 0.0 | 0.00 | 0.13 | 0.13 | 69 | 1014.1 | |
| 20260504205232 | 52 | 0.0 | 0.0 | 0.00 | 0.13 | 0.13 | 69 | 1014.1 | |
| 20260504205134 | 52 | 0.0 | 0.0 | 0.00 | 0.13 | 0.13 | 69 | 1014.1 | |
| 20260504205108 | 52 | 0.0 | 0.0 | 0.00 | 0.13 | 0.13 | 69 | 1014.1 | |
| 20260504205046 | 52 | 0.0 | 0.0 | 0.00 | 0.13 | 0.13 | 69 | 1014.1 | |
| 20260504204722 | 52 | 0.0 | 0.0 | 0.00 | 0.13 | 0.13 | 70 | 1014.2 | |
| 20260504204659 | 52 | 0.0 | 0.0 | 0.00 | 0.13 | 0.13 | 70 | 1014.1 | |
| 20260504204637 | 52 | 0.0 | 0.0 | 0.00 | 0.13 | 0.13 | 70 | 1014.1 | |
| 20260504204612 | 53 | 0.0 | 0.0 | 0.00 | 0.13 | 0.13 | 70 | 1014.2 | |
| 20260504204322 | 53 | 0.0 | 0.0 | 0.00 | 0.13 | 0.13 | 69 | 1014.2 | |
| 20260504203951 | 53 | 0.0 | 0.0 | 0.00 | 0.13 | 0.13 | 69 | 1014.3 | |
| 20260504203847 | 53 | 0.0 | 0.0 | 0.00 | 0.13 | 0.13 | 69 | 1014.3 | |
| 20260504203756 | 53 | 0.0 | 0.0 | 0.00 | 0.13 | 0.13 | 69 | 1014.2 | |
| 20260504203733 | 53 | 0.0 | 0.0 | 0.00 | 0.13 | 0.13 | 69 | 1014.3 | |
| 20260504203713 | 53 | 0.0 | 0.0 | 0.00 | 0.13 | 0.13 | 69 | 1014.3 | |
| 20260504203345 | 53 | 0.0 | 0.0 | 0.00 | 0.13 | 0.13 | 69 | 1014.2 | |
| 20260504203247 | 53 | 0.0 | 0.0 | 0.00 | 0.13 | 0.13 | 69 | 1014.3 | |
| 20260504203147 | 53 | 0.0 | 0.0 | 0.00 | 0.13 | 0.13 | 70 | 1014.3 | |
| 20260504203044 | 53 | 0.0 | 0.0 | 0.00 | 0.13 | 0.13 | 70 | 1014.3 | |
| 20260504202944 | 53 | 0.0 | 0.0 | 0.00 | 0.13 | 0.13 | 70 | 1014.3 | |
| 20260504202845 | 53 | 0.0 | 0.0 | 0.00 | 0.13 | 0.13 | 70 | 1014.3 | |
| 20260504202746 | 53 | 0.0 | 0.0 | 0.00 | 0.13 | 0.13 | 70 | 1014.4 | |
| 20260504202646 | 53 | 0.0 | 0.0 | 0.00 | 0.13 | 0.13 | 70 | 1014.4 | |
| 20260504202546 | 53 | 0.0 | 0.0 | 0.00 | 0.13 | 0.13 | 70 | 1014.4 | |
| 20260504202444 | 53 | 0.0 | 0.0 | 0.00 | 0.13 | 0.13 | 70 | 1014.4 | |
| 20260504202344 | 53 | 0.0 | 0.0 | 0.00 | 0.13 | 0.13 | 70 | 1014.4 | |
| 20260504202246 | 53 | 0.0 | 0.0 | 0.00 | 0.13 | 0.13 | 70 | 1014.4 | |
| 20260504202146 | 53 | 0.0 | 0.0 | 0.00 | 0.13 | 0.13 | 70 | 1014.4 | |
| 20260504202044 | 53 | 0.0 | 0.0 | 0.00 | 0.13 | 0.13 | 70 | 1014.4 | |
| 20260504201946 | 53 | 0.0 | 0.0 | 0.00 | 0.13 | 0.13 | 70 | 1014.4 | |
| 20260504201844 | 53 | 0.0 | 0.0 | 0.00 | 0.13 | 0.13 | 70 | 1014.4 | |
| 20260504201747 | 53 | 0.0 | 0.0 | 0.00 | 0.13 | 0.13 | 70 | 1014.4 | |
| 20260504201645 | 53 | 0.0 | 0.0 | 0.00 | 0.13 | 0.13 | 70 | 1014.5 | |
| 20260504201544 | 53 | 0.0 | 0.0 | 0.00 | 0.13 | 0.13 | 70 | 1014.4 | |
| 20260504201451 | 53 | 0.0 | 0.0 | 0.00 | 0.13 | 0.13 | 70 | 1014.5 | |
| 20260504201436 | 53 | 0.0 | 0.0 | 0.00 | 0.13 | 0.13 | 70 | 1014.5 | |
| 20260504201412 | 53 | 0.0 | 0.0 | 0.00 | 0.13 | 0.13 | 70 | 1014.5 | |
| 20260504201045 | 53 | 0.0 | 0.0 | 0.00 | 0.13 | 0.13 | 70 | 1014.5 | |
| 20260504201019 | 53 | 0.0 | 0.0 | 0.00 | 0.13 | 0.13 | 70 | 1014.4 | |
| 20260504200954 | 53 | 0.0 | 0.0 | 0.00 | 0.13 | 0.13 | 70 | 1014.5 | |
| 20260504200931 | 53 | 0.0 | 0.0 | 0.00 | 0.13 | 0.13 | 70 | 1014.5 | |
| 20260504200909 | 53 | 0.0 | 0.0 | 0.00 | 0.13 | 0.13 | 70 | 1014.6 | |
| 20260504200619 | 53 | 0.0 | 0.0 | 0.00 | 0.13 | 0.13 | 70 | 1014.6 | |
| 20260504200557 | 53 | 0.0 | 0.0 | 0.00 | 0.13 | 0.13 | 70 | 1014.6 | |
| 20260504200537 | 53 | 0.0 | 0.0 | 0.00 | 0.13 | 0.13 | 70 | 1014.7 | |
| 20260504200010 | 53 | 0.0 | 0.0 | 0.00 | 0.13 | 0.13 | 71 | 1014.6 | |
| 20260504195946 | 53 | 0.0 | 0.0 | 0.00 | 0.13 | 0.13 | 71 | 1014.6 | |
| 20260504195922 | 53 | 0.0 | 0.0 | 0.00 | 0.13 | 0.13 | 71 | 1014.6 | |
| 20260504195859 | 53 | 0.0 | 0.0 | 0.00 | 0.13 | 0.13 | 71 | 1014.6 | |
| 20260504195836 | 53 | 0.0 | 0.0 | 0.00 | 0.13 | 0.13 | 71 | 1014.7 | |
| 20260504195812 | 53 | 0.0 | 0.0 | 0.00 | 0.13 | 0.13 | 71 | 1014.7 | |
| 20260504195521 | 53 | 0.0 | 0.0 | 0.00 | 0.13 | 0.13 | 71 | 1014.7 | |
| 20260504194907 | 53 | 0.0 | 0.0 | 0.00 | 0.13 | 0.13 | 71 | 1014.7 | |
| 20260504194816 | 53 | 0.0 | 0.0 | 0.00 | 0.13 | 0.13 | 71 | 1014.7 | |
| 20260504194757 | 53 | 0.0 | 0.0 | 0.00 | 0.13 | 0.13 | 71 | 1014.7 | |
| 20260504194734 | 53 | 0.0 | 0.0 | 0.00 | 0.13 | 0.13 | 71 | 1014.6 | |
| 20260504194408 | 53 | 0.0 | 0.0 | 0.00 | 0.13 | 0.13 | 71 | 1014.7 | |
| 20260504194344 | 53 | 0.0 | 0.0 | 0.00 | 0.13 | 0.13 | 71 | 1014.6 | |
| 20260504194324 | 53 | 0.0 | 0.0 | 0.00 | 0.13 | 0.13 | 71 | 1014.6 | |
| 20260504194022 | 54 | 0.0 | 0.0 | 0.00 | 0.13 | 0.13 | 71 | 1014.6 | |
| 20260504193957 | 54 | 0.0 | 0.0 | 0.00 | 0.13 | 0.13 | 71 | 1014.5 | |
| 20260504193931 | 54 | 0.0 | 0.0 | 0.00 | 0.13 | 0.13 | 71 | 1014.6 | |
| 20260504193604 | 54 | 0.0 | 0.0 | 0.00 | 0.13 | 0.13 | 71 | 1014.8 | |
| 20260504193503 | 54 | 0.0 | 0.0 | 0.00 | 0.13 | 0.13 | 71 | 1014.8 | |
| 20260504193402 | 54 | 0.0 | 0.0 | 0.00 | 0.13 | 0.13 | 71 | 1014.8 | |
| 20260504193305 | 54 | 0.0 | 0.0 | 0.00 | 0.13 | 0.13 | 71 | 1014.8 | |
| 20260504193204 | 54 | 0.0 | 0.0 | 0.00 | 0.13 | 0.13 | 71 | 1014.7 | |
| 20260504193103 | 54 | 0.0 | 0.0 | 0.00 | 0.13 | 0.13 | 71 | 1014.7 | |
| 20260504193004 | 54 | 0.0 | 0.0 | 0.00 | 0.13 | 0.13 | 71 | 1014.8 | |
| 20260504192903 | 54 | 0.0 | 0.0 | 0.00 | 0.13 | 0.13 | 71 | 1014.8 | |
| 20260504192805 | 54 | 0.0 | 0.0 | 0.00 | 0.13 | 0.13 | 71 | 1014.8 | |
| 20260504192704 | 54 | 0.0 | 0.0 | 0.00 | 0.13 | 0.13 | 71 | 1014.7 | |
| 20260504192603 | 54 | 0.0 | 0.0 | 0.00 | 0.13 | 0.13 | 71 | 1014.7 | |
| 20260504192503 | 54 | 0.0 | 0.0 | 0.00 | 0.13 | 0.13 | 71 | 1014.7 | |
| 20260504192404 | 54 | 0.0 | 0.0 | 0.00 | 0.13 | 0.13 | 71 | 1014.7 | |
| 20260504192304 | 54 | 0.0 | 0.0 | 0.00 | 0.13 | 0.13 | 71 | 1014.7 | |
| 20260504192203 | 54 | 0.0 | 0.0 | 0.00 | 0.13 | 0.13 | 71 | 1014.7 | |
| 20260504192102 | 54 | 0.0 | 0.0 | 0.00 | 0.13 | 0.13 | 71 | 1014.7 | |
| 20260504192033 | 54 | 0.0 | 0.0 | 0.00 | 0.13 | 0.13 | 71 | 1014.7 | |
| 20260504192013 | 54 | 0.0 | 0.0 | 0.00 | 0.13 | 0.13 | 71 | 1014.7 | |
| 20260504191951 | 54 | 0.0 | 0.0 | 0.00 | 0.13 | 0.13 | 71 | 1014.7 | |
| 20260504191927 | 54 | 0.0 | 0.0 | 0.00 | 0.13 | 0.13 | 70 | 1014.7 | |
| 20260504191640 | 54 | 0.0 | 0.0 | 0.00 | 0.13 | 0.13 | 70 | 1014.7 | |
| 20260504191623 | 54 | 0.0 | 0.0 | 0.00 | 0.13 | 0.13 | 70 | 1014.6 | |
| 20260504191336 | 54 | 0.0 | 0.0 | 0.00 | 0.13 | 0.13 | 70 | 1014.7 | |
| 20260504191314 | 54 | 0.0 | 0.0 | 0.00 | 0.13 | 0.13 | 70 | 1014.7 | |
| 20260504191036 | 54 | 0.0 | 0.0 | 0.00 | 0.13 | 0.13 | 70 | 1014.8 | |
| 20260504191016 | 54 | 0.0 | 0.0 | 0.00 | 0.13 | 0.13 | 70 | 1014.8 | |
| 20260504190955 | 54 | 0.0 | 0.0 | 0.00 | 0.13 | 0.13 | 70 | 1014.7 | |
| 20260504190721 | 54 | 0.0 | 0.0 | 0.00 | 0.13 | 0.13 | 70 | 1014.8 | |
| 20260504190445 | 54 | 0.0 | 0.0 | 0.00 | 0.13 | 0.13 | 70 | 1014.8 | |
| 20260504190429 | 54 | 0.0 | 0.0 | 0.00 | 0.13 | 0.13 | 70 | 1014.8 | |
| 20260504190409 | 54 | 0.0 | 0.0 | 0.00 | 0.13 | 0.13 | 70 | 1014.7 | |
| 20260504190122 | 54 | 0.0 | 0.0 | 0.00 | 0.13 | 0.13 | 70 | 1014.8 | |
| 20260504190105 | 54 | 0.0 | 0.0 | 0.00 | 0.13 | 0.13 | 70 | 1014.8 | |
| 20260504185817 | 54 | 0.0 | 0.0 | 0.00 | 0.13 | 0.13 | 70 | 1014.9 | |
| 20260504185756 | 54 | 0.0 | 0.0 | 0.00 | 0.13 | 0.13 | 70 | 1014.9 | |
| 20260504185742 | 54 | 0.0 | 0.0 | 0.00 | 0.13 | 0.13 | 70 | 1014.9 | |
| 20260504185503 | 54 | 0.0 | 0.0 | 0.00 | 0.13 | 0.13 | 70 | 1014.9 | |
| 20260504185230 | 54 | 0.0 | 0.0 | 0.00 | 0.13 | 0.13 | 70 | 1014.9 | |
| 20260504184728 | 54 | 0.0 | 0.0 | 0.00 | 0.13 | 0.13 | 70 | 1014.9 | |
| 20260504184711 | 54 | 0.0 | 0.0 | 0.00 | 0.13 | 0.13 | 70 | 1014.9 | |
| 20260504184647 | 54 | 0.0 | 0.0 | 0.00 | 0.13 | 0.13 | 70 | 1014.9 | |
| 20260504184406 | 54 | 0.0 | 0.0 | 0.00 | 0.13 | 0.13 | 70 | 1014.9 | |
| 20260504184043 | 54 | 0.0 | 0.0 | 0.00 | 0.13 | 0.13 | 70 | 1014.9 | |
| 20260504183943 | 54 | 0.0 | 0.0 | 0.00 | 0.13 | 0.13 | 70 | 1014.9 | |
| 20260504183843 | 54 | 0.0 | 0.0 | 0.00 | 0.13 | 0.13 | 70 | 1015.0 | |
| 20260504183742 | 54 | 0.0 | 0.0 | 0.00 | 0.13 | 0.13 | 70 | 1014.9 | |
| 20260504183643 | 54 | 0.0 | 0.0 | 0.00 | 0.13 | 0.13 | 69 | 1014.9 | |
| 20260504183543 | 54 | 0.0 | 0.0 | 0.00 | 0.13 | 0.13 | 69 | 1014.9 | |
| 20260504183443 | 54 | 0.0 | 0.0 | 0.00 | 0.13 | 0.13 | 69 | 1015.0 | |
| 20260504183344 | 54 | 0.0 | 0.0 | 0.00 | 0.13 | 0.13 | 69 | 1015.0 | |
| 20260504183242 | 54 | 0.0 | 0.0 | 0.00 | 0.13 | 0.13 | 69 | 1014.9 | |
| 20260504183143 | 54 | 0.0 | 0.0 | 0.00 | 0.13 | 0.13 | 69 | 1015.0 | |
| 20260504183043 | 55 | 0.0 | 0.0 | 0.00 | 0.13 | 0.13 | 69 | 1015.0 | |
| 20260504182942 | 55 | 0.0 | 0.0 | 0.00 | 0.13 | 0.13 | 69 | 1015.0 | |
| 20260504182842 | 55 | 0.0 | 0.0 | 0.00 | 0.13 | 0.13 | 69 | 1015.0 | |
| 20260504182742 | 55 | 0.0 | 0.0 | 0.00 | 0.13 | 0.13 | 69 | 1014.9 | |
| 20260504182643 | 55 | 0.0 | 0.0 | 0.00 | 0.13 | 0.13 | 69 | 1015.0 | |
| 20260504182541 | 55 | 0.0 | 0.0 | 0.00 | 0.13 | 0.13 | 69 | 1015.0 | |
| 20260504182442 | 55 | 0.0 | 0.0 | 0.00 | 0.13 | 0.13 | 69 | 1015.0 | |
| 20260504182342 | 55 | 0.0 | 0.0 | 0.00 | 0.13 | 0.13 | 69 | 1015.0 | |
| 20260504182314 | 55 | 0.0 | 0.0 | 0.00 | 0.13 | 0.13 | 69 | 1015.0 | |
| 20260504182254 | 55 | 0.0 | 0.0 | 0.00 | 0.13 | 0.13 | 69 | 1015.0 | |
| 20260504182236 | 55 | 0.0 | 0.0 | 0.00 | 0.13 | 0.13 | 69 | 1015.0 | |
| 20260504182208 | 55 | 0.0 | 0.0 | 0.00 | 0.13 | 0.13 | 69 | 1015.0 | |
| 20260504182148 | 55 | 0.0 | 0.0 | 0.00 | 0.13 | 0.13 | 69 | 1015.0 | |
| 20260504181900 | 55 | 0.0 | 0.0 | 0.00 | 0.13 | 0.13 | 69 | 1015.0 | |
| 20260504181610 | 55 | 0.0 | 0.0 | 0.00 | 0.13 | 0.13 | 69 | 1015.1 | |
| 20260504181242 | 55 | 0.0 | 0.0 | 0.00 | 0.13 | 0.13 | 69 | 1015.0 | |
| 20260504181142 | 55 | 0.0 | 0.0 | 0.00 | 0.13 | 0.13 | 69 | 1015.0 | |
| 20260504181043 | 55 | 0.0 | 0.0 | 0.00 | 0.13 | 0.13 | 69 | 1015.0 | |
| 20260504180941 | 55 | 0.0 | 0.0 | 0.00 | 0.13 | 0.13 | 69 | 1015.0 | |
| 20260504180842 | 55 | 0.0 | 0.0 | 0.00 | 0.13 | 0.13 | 69 | 1015.0 | |
| 20260504180752 | 55 | 0.0 | 0.0 | 0.00 | 0.13 | 0.13 | 69 | 1015.0 | |
| 20260504180731 | 55 | 0.0 | 0.0 | 0.00 | 0.13 | 0.13 | 69 | 1015.0 | |
| 20260504180708 | 55 | 0.0 | 0.0 | 0.00 | 0.13 | 0.13 | 69 | 1015.0 | |
| 20260504180358 | 55 | 0.0 | 0.0 | 0.00 | 0.13 | 0.13 | 69 | 1015.1 | |
| 20260504180332 | 55 | 0.0 | 0.0 | 0.00 | 0.13 | 0.13 | 69 | 1015.1 | |
| 20260504180311 | 55 | 0.0 | 0.0 | 0.00 | 0.13 | 0.13 | 69 | 1015.1 | |
| 20260504180251 | 55 | 0.0 | 0.0 | 0.00 | 0.13 | 0.13 | 69 | 1015.1 | |
| 20260504180000 | 55 | 0.0 | 0.0 | 0.00 | 0.13 | 0.13 | 69 | 1015.2 | |
| 20260504175631 | 55 | 0.0 | 0.0 | 0.00 | 0.13 | 0.13 | 69 | 1015.1 | |
| 20260504175601 | 55 | 0.0 | 0.0 | 0.00 | 0.13 | 0.13 | 69 | 1015.2 | |
| 20260504175535 | 55 | 0.0 | 0.0 | 0.00 | 0.13 | 0.13 | 69 | 1015.1 | |
| 20260504175514 | 55 | 0.0 | 0.0 | 0.00 | 0.13 | 0.13 | 69 | 1015.1 | |
| 20260504175446 | 55 | 0.0 | 0.0 | 0.00 | 0.13 | 0.13 | 69 | 1015.1 | |
| 20260504175422 | 55 | 0.0 | 0.0 | 0.00 | 0.13 | 0.13 | 69 | 1015.2 | |
| 20260504175130 | 55 | 0.0 | 0.0 | 0.00 | 0.13 | 0.13 | 69 | 1015.1 | |
| 20260504175109 | 55 | 0.0 | 0.0 | 0.00 | 0.13 | 0.13 | 69 | 1015.1 | |
| 20260504175042 | 55 | 0.0 | 0.0 | 0.00 | 0.13 | 0.13 | 69 | 1015.2 | |
| 20260504174754 | 55 | 0.0 | 0.0 | 0.00 | 0.13 | 0.13 | 69 | 1015.3 | |
| 20260504174237 | 55 | 0.0 | 0.0 | 0.00 | 0.13 | 0.13 | 69 | 1015.3 | |
| 20260504174218 | 55 | 0.0 | 0.0 | 0.00 | 0.13 | 0.13 | 69 | 1015.2 | |
| 20260504174201 | 55 | 0.0 | 0.0 | 0.00 | 0.13 | 0.13 | 69 | 1015.3 | |
| 20260504174138 | 55 | 0.0 | 0.0 | 0.00 | 0.13 | 0.13 | 68 | 1015.3 | |
| 20260504174114 | 55 | 0.0 | 0.0 | 0.00 | 0.13 | 0.13 | 68 | 1015.3 | |
| 20260504173828 | 55 | 0.0 | 0.0 | 0.00 | 0.13 | 0.13 | 68 | 1015.3 | |
| 20260504173759 | 55 | 0.0 | 0.0 | 0.00 | 0.13 | 0.13 | 67 | 1015.3 | |
| 20260504173736 | 55 | 0.0 | 0.0 | 0.00 | 0.13 | 0.13 | 67 | 1015.3 | |
| 20260504173447 | 55 | 0.0 | 0.0 | 0.00 | 0.13 | 0.13 | 67 | 1015.4 | |
| 20260504173422 | 55 | 0.0 | 0.0 | 0.00 | 0.13 | 0.13 | 67 | 1015.4 | |
| 20260504173358 | 55 | 0.0 | 0.0 | 0.00 | 0.13 | 0.13 | 67 | 1015.3 | |
| 20260504173337 | 55 | 0.0 | 0.0 | 0.00 | 0.13 | 0.13 | 68 | 1015.4 | |
| 20260504173047 | 55 | 0.0 | 0.0 | 0.00 | 0.13 | 0.13 | 68 | 1015.3 | |
| 20260504173026 | 55 | 0.0 | 0.0 | 0.00 | 0.13 | 0.13 | 68 | 1015.3 | |
| 20260504173004 | 55 | 0.0 | 0.0 | 0.00 | 0.13 | 0.13 | 68 | 1015.4 | |
| 20260504172712 | 55 | 0.0 | 0.0 | 0.00 | 0.13 | 0.13 | 68 | 1015.4 | |
| 20260504172157 | 55 | 0.0 | 0.0 | 0.00 | 0.13 | 0.13 | 68 | 1015.4 | |
| 20260504172133 | 55 | 0.0 | 0.0 | 0.00 | 0.13 | 0.13 | 68 | 1015.4 | |
| 20260504172112 | 55 | 0.0 | 0.0 | 0.00 | 0.13 | 0.13 | 68 | 1015.4 | |
| 20260504171831 | 55 | 0.0 | 0.0 | 0.00 | 0.13 | 0.13 | 68 | 1015.4 | |
| 20260504171804 | 55 | 0.0 | 0.0 | 0.00 | 0.13 | 0.13 | 68 | 1015.5 | |
| 20260504171741 | 55 | 0.0 | 0.0 | 0.00 | 0.13 | 0.13 | 68 | 1015.5 | |
| 20260504171720 | 55 | 0.0 | 0.0 | 0.00 | 0.13 | 0.13 | 68 | 1015.5 | |
| 20260504171657 | 55 | 0.0 | 0.0 | 0.00 | 0.13 | 0.13 | 68 | 1015.6 | |
| 20260504171634 | 55 | 0.0 | 0.0 | 0.00 | 0.13 | 0.13 | 68 | 1015.5 | |
| 20260504171346 | 55 | 0.0 | 0.0 | 0.00 | 0.13 | 0.13 | 68 | 1015.5 | |
| 20260504171055 | 55 | 0.0 | 0.0 | 0.00 | 0.13 | 0.13 | 68 | 1015.6 | |
| 20260504170536 | 55 | 0.0 | 0.0 | 0.00 | 0.13 | 0.13 | 67 | 1015.6 | |
| 20260504170509 | 55 | 0.0 | 0.0 | 0.00 | 0.13 | 0.13 | 67 | 1015.6 | |
| 20260504170448 | 55 | 0.0 | 0.0 | 0.00 | 0.13 | 0.13 | 67 | 1015.6 | |
| 20260504170425 | 55 | 0.0 | 0.0 | 0.00 | 0.13 | 0.13 | 67 | 1015.6 | |
| 20260504170409 | 55 | 0.0 | 0.0 | 0.00 | 0.13 | 0.13 | 67 | 1015.7 | |
| 20260504170348 | 55 | 0.0 | 0.0 | 0.01 | 0.13 | 0.13 | 67 | 1015.7 | |
| 20260504160442 | 55 | 0.0 | 0.0 | 0.01 | 0.12 | 0.12 | 66 | 1016.0 | |
| 20260504160145 | 55 | 0.0 | 0.0 | 0.00 | 0.12 | 0.12 | 66 | 1016.0 | |
| 20260504151148 | 55 | 0.0 | 0.0 | 0.03 | 0.12 | 0.12 | 69 | 1016.2 | |
| 20260504151041 | 55 | 0.0 | 0.0 | 0.03 | 0.12 | 0.12 | 69 | 1016.2 | |
| 20260504150939 | 55 | 0.0 | 0.0 | 0.04 | 0.12 | 0.12 | 69 | 1016.2 | |
| 20260504150841 | 55 | 0.0 | 0.0 | 0.04 | 0.12 | 0.12 | 69 | 1016.3 | |
| 20260504150739 | 55 | 0.0 | 0.0 | 0.04 | 0.12 | 0.12 | 69 | 1016.2 | |
| 20260504150632 | 55 | 0.0 | 0.0 | 0.04 | 0.12 | 0.12 | 69 | 1016.3 | |
| 20260504150538 | 55 | 0.0 | 0.0 | 0.05 | 0.12 | 0.12 | 69 | 1016.3 | |
| 20260504150434 | 55 | 0.0 | 0.0 | 0.05 | 0.12 | 0.12 | 69 | 1016.2 | |
| 20260504150335 | 55 | 0.0 | 0.0 | 0.05 | 0.12 | 0.12 | 69 | 1016.3 | |
| 20260504150303 | 55 | 0.0 | 0.0 | 0.05 | 0.12 | 0.12 | 69 | 1016.3 | |
| 20260504150245 | 55 | 0.0 | 0.0 | 0.05 | 0.12 | 0.12 | 69 | 1016.5 | |
| 20260504150224 | 55 | 0.0 | 0.0 | 0.06 | 0.12 | 0.12 | 69 | 1016.3 | |
| 20260504150204 | 55 | 0.0 | 0.0 | 0.06 | 0.06 | 0.12 | 69 | 1016.3 | |
| 20260504141232 | 56 | 0.0 | 0.0 | 0.07 | 0.06 | 0.09 | 74 | 1016.6 | |
| 20260504141135 | 56 | 0.0 | 0.0 | 0.07 | 0.06 | 0.09 | 74 | 1016.5 | |
| 20260504141032 | 56 | 0.0 | 0.0 | 0.07 | 0.06 | 0.08 | 74 | 1016.6 | |
| 20260504140944 | 56 | 0.0 | 0.0 | 0.06 | 0.06 | 0.08 | 74 | 1016.6 | |
| 20260504140924 | 56 | 0.0 | 0.0 | 0.06 | 0.06 | 0.08 | 75 | 1016.6 | |
| 20260504140859 | 56 | 0.0 | 0.0 | 0.06 | 0.06 | 0.08 | 75 | 1016.6 | |
| 20260504140533 | 56 | 0.0 | 0.0 | 0.06 | 0.06 | 0.07 | 75 | 1016.6 | |
| 20260504140513 | 56 | 0.0 | 0.0 | 0.06 | 0.06 | 0.07 | 75 | 1016.6 | |
| 20260504140456 | 56 | 0.0 | 0.0 | 0.06 | 0.06 | 0.07 | 75 | 1016.6 | |
| 20260504140435 | 56 | 0.0 | 0.0 | 0.06 | 0.06 | 0.06 | 75 | 1016.6 | |
| 20260504140417 | 56 | 0.0 | 0.0 | 0.06 | 0.06 | 0.06 | 75 | 1016.6 | |
| 20260504140128 | 56 | 0.0 | 0.0 | 0.06 | 0.01 | 0.06 | 75 | 1016.6 | |
| 20260504140108 | 56 | 0.0 | 0.0 | 0.06 | 0.01 | 0.06 | 75 | 1016.7 | |
| 20260504130706 | 58 | 0.0 | 0.0 | 0.01 | 0.01 | 0.01 | 76 | 1016.3 | |
| 20260504130643 | 58 | 0.0 | 0.0 | 0.01 | 0.01 | 0.01 | 76 | 1016.5 | |
| 20260504130625 | 58 | 0.0 | 0.0 | 0.01 | 0.01 | 0.01 | 76 | 1016.5 | |
| 20260504130607 | 58 | 0.0 | 0.0 | 0.01 | 0.01 | 0.01 | 76 | 1016.5 | |
| 20260504130545 | 58 | 0.0 | 0.0 | 0.01 | 0.01 | 0.01 | 76 | 1016.5 | |
| 20260504130257 | 58 | 0.0 | 0.0 | 0.01 | 0.01 | 0.01 | 76 | 1016.5 | |
| 20260504130234 | 58 | 0.0 | 0.0 | 0.01 | 0.00 | 0.01 | 76 | 1016.5 | |
| 20260504130218 | 58 | 0.0 | 0.0 | 0.01 | 0.00 | 0.01 | 76 | 1016.5 | |
| 20260504130155 | 58 | 0.0 | 0.0 | 0.00 | 0.00 | 0.00 | 76 | 1016.5 |